Time,TemperatureF,DewpointF,PressureIn,WindDirection,WindDirectionDegrees,WindSpeedMPH,WindSpeedGustMPH,Humidity,HourlyPrecipIn,Conditions,Clouds,dailyrainin,SoftwareType,DateUTC
2013-03-25 00:02:00,25.3,23.3,30.09,NNW,331,5.0,6.0,92,0.00,,,0.01,Wunderground v.1.15,2013-03-25 05:02:00,
2013-03-25 00:07:00,25.3,23.0,30.09,NW,319,5.0,6.0,91,0.00,,,0.01,Wunderground v.1.15,2013-03-25 05:07:00,
2013-03-25 00:08:00,25.3,23.0,30.09,NNW,329,5.0,6.0,91,0.00,,,0.01,Wunderground v.1.15,2013-03-25 05:08:00,
2013-03-25 00:13:00,25.2,22.9,30.09,North,351,4.0,5.0,91,0.00,,,0.01,Wunderground v.1.15,2013-03-25 05:13:00,
2013-03-25 00:14:00,25.2,22.9,30.09,NNW,327,2.0,5.0,91,0.00,,,0.01,Wunderground v.1.15,2013-03-25 05:14:00,
2013-03-25 00:18:00,25.2,22.9,30.09,NW,319,4.0,5.0,91,0.00,,,0.00,Wunderground v.1.15,2013-03-25 05:18:00,
2013-03-25 00:20:00,25.2,22.9,30.09,NNW,333,8.0,8.0,91,0.00,,,0.00,Wunderground v.1.15,2013-03-25 05:20:00,
2013-03-25 00:23:00,25.1,22.8,30.09,NW,322,4.0,8.0,91,0.00,,,0.00,Wunderground v.1.15,2013-03-25 05:23:00,
2013-03-25 00:26:00,25.1,22.8,30.10,NW,318,5.0,8.0,91,0.00,,,0.00,Wunderground v.1.15,2013-03-25 05:26:00,
2013-03-25 00:29:00,25.1,22.8,30.10,NW,325,6.0,8.0,91,0.00,,,0.00,Wunderground v.1.15,2013-03-25 05:29:00,
2013-03-25 00:30:00,25.1,22.8,30.10,NNW,332,3.0,5.0,91,0.00,,,0.00,Wunderground v.1.15,2013-03-25 05:30:00,
2013-03-25 00:32:00,25.1,22.8,30.10,NW,321,6.0,6.0,91,0.00,,,0.00,Wunderground v.1.15,2013-03-25 05:32:00,
2013-03-25 00:35:00,25.0,22.7,30.10,NW,323,4.0,6.0,91,0.00,,,0.00,Wunderground v.1.15,2013-03-25 05:35:00,
2013-03-25 00:36:00,25.0,22.7,30.10,NW,321,6.0,6.0,91,0.00,,,0.00,Wunderground v.1.15,2013-03-25 05:36:00,
2013-03-25 00:39:00,24.9,22.6,30.10,NNW,327,6.0,6.0,91,0.00,,,0.00,Wunderground v.1.15,2013-03-25 05:39:00,
2013-03-25 00:42:00,24.9,22.6,30.10,NNW,328,7.0,7.0,91,0.00,,,0.00,Wunderground v.1.15,2013-03-25 05:42:00,
2013-03-25 00:43:00,24.9,22.6,30.10,NW,319,6.0,7.0,91,0.00,,,0.00,Wunderground v.1.15,2013-03-25 05:43:00,
2013-03-25 00:45:00,24.9,22.6,30.10,NW,320,3.0,7.0,91,0.00,,,0.00,Wunderground v.1.15,2013-03-25 05:45:00,
2013-03-25 00:51:00,24.8,22.5,30.10,NW,326,3.0,5.0,91,0.00,,,0.00,Wunderground v.1.15,2013-03-25 05:51:00,
2013-03-25 00:52:00,24.8,22.5,30.10,NW,318,0.0,5.0,91,0.00,,,0.00,Wunderground v.1.15,2013-03-25 05:52:00,
2013-03-25 00:56:00,24.8,22.5,30.10,WNW,290,2.0,5.0,91,0.00,,,0.00,Wunderground v.1.15,2013-03-25 05:56:00,
2013-03-25 00:57:00,24.8,22.5,30.10,NW,315,3.0,5.0,91,0.00,,,0.00,Wunderground v.1.15,2013-03-25 05:57:00,
2013-03-25 00:59:00,24.8,22.5,30.10,NW,315,1.0,5.0,91,0.00,,,0.00,Wunderground v.1.15,2013-03-25 05:59:00,
2013-03-25 01:03:00,24.7,22.4,30.10,NW,317,5.0,5.0,91,0.00,,,0.00,Wunderground v.1.15,2013-03-25 06:03:00,
2013-03-25 01:05:00,24.7,22.4,30.10,NW,308,2.0,5.0,91,0.00,,,0.00,Wunderground v.1.15,2013-03-25 06:05:00,
2013-03-25 01:09:00,24.5,22.2,30.10,NW,315,3.0,3.0,91,0.00,,,0.00,Wunderground v.1.15,2013-03-25 06:09:00,
2013-03-25 01:12:00,24.4,22.2,30.10,WNW,302,1.0,4.0,91,0.00,,,0.00,Wunderground v.1.15,2013-03-25 06:12:00,
2013-03-25 01:14:00,24.4,22.2,30.10,North,360,1.0,4.0,91,0.00,,,0.00,Wunderground v.1.15,2013-03-25 06:14:00,
2013-03-25 01:15:00,24.4,22.2,30.10,NW,306,3.0,4.0,91,0.00,,,0.00,Wunderground v.1.15,2013-03-25 06:15:00,
2013-03-25 01:18:00,24.3,22.1,30.10,NNW,331,2.0,4.0,91,0.00,,,0.00,Wunderground v.1.15,2013-03-25 06:18:00,
2013-03-25 01:23:00,24.3,22.1,30.10,NW,315,1.0,2.0,91,0.00,,,0.00,Wunderground v.1.15,2013-03-25 06:23:00,
2013-03-25 01:25:00,24.2,22.0,30.10,NW,317,3.0,3.0,91,0.00,,,0.00,Wunderground v.1.15,2013-03-25 06:25:00,
2013-03-25 01:26:00,24.2,22.0,30.10,NW,322,7.0,7.0,91,0.00,,,0.00,Wunderground v.1.15,2013-03-25 06:26:00,
2013-03-25 01:29:00,24.1,21.9,30.10,WNW,286,4.0,7.0,91,0.00,,,0.00,Wunderground v.1.15,2013-03-25 06:29:00,
2013-03-25 01:30:00,24.1,21.9,30.10,NNW,329,4.0,4.0,91,0.00,,,0.00,Wunderground v.1.15,2013-03-25 06:30:00,
2013-03-25 01:32:00,24.1,21.9,30.10,WNW,293,3.0,4.0,91,0.00,,,0.00,Wunderground v.1.15,2013-03-25 06:32:00,
2013-03-25 01:37:00,24.0,21.8,30.10,NW,321,2.0,4.0,91,0.00,,,0.00,Wunderground v.1.15,2013-03-25 06:37:00,
2013-03-25 01:38:00,24.0,21.8,30.10,NW,315,4.0,4.0,91,0.00,,,0.00,Wunderground v.1.15,2013-03-25 06:38:00,
2013-03-25 01:41:00,24.0,21.8,30.10,WNW,284,1.0,3.0,91,0.00,,,0.00,Wunderground v.1.15,2013-03-25 06:41:00,
2013-03-25 01:45:00,24.0,21.8,30.10,WNW,282,2.0,4.0,91,0.00,,,0.00,Wunderground v.1.15,2013-03-25 06:45:00,
2013-03-25 01:47:00,24.0,21.8,30.10,WNW,284,1.0,4.0,91,0.00,,,0.00,Wunderground v.1.15,2013-03-25 06:47:00,
2013-03-25 01:48:00,24.0,22.0,30.10,NW,325,3.0,4.0,92,0.00,,,0.00,Wunderground v.1.15,2013-03-25 06:48:00,
2013-03-25 01:52:00,24.0,21.8,30.10,NW,317,2.0,2.0,91,0.00,,,0.00,Wunderground v.1.15,2013-03-25 06:52:00,
2013-03-25 01:54:00,23.9,21.7,30.10,NW,316,1.0,2.0,91,0.00,,,0.00,Wunderground v.1.15,2013-03-25 06:54:00,
2013-03-25 01:59:00,23.9,21.7,30.10,NW,305,1.0,3.0,91,0.00,,,0.00,Wunderground v.1.15,2013-03-25 06:59:00,
2013-03-25 02:00:00,23.9,21.9,30.10,NNW,340,2.0,2.0,92,0.00,,,0.00,Wunderground v.1.15,2013-03-25 07:00:00,
2013-03-25 02:04:00,23.9,21.9,30.10,NNW,336,3.0,6.0,92,0.00,,,0.00,Wunderground v.1.15,2013-03-25 07:04:00,
2013-03-25 02:05:00,23.8,21.8,30.10,WNW,293,1.0,6.0,92,0.00,,,0.00,Wunderground v.1.15,2013-03-25 07:05:00,
2013-03-25 02:06:00,23.8,21.8,30.10,WNW,302,2.0,6.0,92,0.00,,,0.00,Wunderground v.1.15,2013-03-25 07:06:00,
2013-03-25 02:09:00,23.8,21.8,30.10,NW,325,1.0,2.0,92,0.00,,,0.00,Wunderground v.1.15,2013-03-25 07:09:00,
2013-03-25 02:10:00,23.8,21.8,30.11,WNW,303,1.0,6.0,92,0.00,,,0.00,Wunderground v.1.15,2013-03-25 07:10:00,
2013-03-25 02:11:00,23.8,21.8,30.10,WNW,303,0.0,6.0,92,0.00,,,0.00,Wunderground v.1.15,2013-03-25 07:11:00,
2013-03-25 02:12:00,23.8,21.8,30.10,NNW,337,1.0,6.0,92,0.00,,,0.00,Wunderground v.1.15,2013-03-25 07:12:00,
2013-03-25 02:14:00,23.8,21.8,30.11,NNW,327,1.0,6.0,92,0.00,,,0.00,Wunderground v.1.15,2013-03-25 07:14:00,
2013-03-25 02:16:00,23.8,21.8,30.11,NW,318,2.0,6.0,92,0.00,,,0.00,Wunderground v.1.15,2013-03-25 07:16:00,
2013-03-25 02:18:00,23.8,21.8,30.10,NNW,328,1.0,6.0,92,0.00,,,0.00,Wunderground v.1.15,2013-03-25 07:18:00,
2013-03-25 02:20:00,23.8,21.8,30.10,NW,311,4.0,4.0,92,0.00,,,0.00,Wunderground v.1.15,2013-03-25 07:20:00,
2013-03-25 02:21:00,23.8,21.8,30.10,NW,321,3.0,4.0,92,0.00,,,0.00,Wunderground v.1.15,2013-03-25 07:21:00,
2013-03-25 02:23:00,23.8,21.8,30.10,NW,325,2.0,6.0,92,0.00,,,0.00,Wunderground v.1.15,2013-03-25 07:23:00,
2013-03-25 02:25:00,23.8,21.8,30.10,NNW,337,1.0,6.0,92,0.00,,,0.00,Wunderground v.1.15,2013-03-25 07:25:00,
2013-03-25 02:27:00,23.8,21.8,30.10,NW,312,1.0,6.0,92,0.00,,,0.00,Wunderground v.1.15,2013-03-25 07:27:00,
2013-03-25 02:28:00,23.8,21.8,30.10,NW,325,3.0,6.0,92,0.00,,,0.00,Wunderground v.1.15,2013-03-25 07:28:00,
2013-03-25 02:30:00,23.9,21.9,30.10,NW,311,2.0,4.0,92,0.00,,,0.00,Wunderground v.1.15,2013-03-25 07:30:00,
2013-03-25 02:32:00,23.9,21.9,30.10,NW,326,1.0,4.0,92,0.00,,,0.00,Wunderground v.1.15,2013-03-25 07:32:00,
2013-03-25 02:33:00,23.9,21.9,30.10,NNE,21,4.0,6.0,92,0.00,,,0.00,Wunderground v.1.15,2013-03-25 07:33:00,
2013-03-25 02:35:00,23.9,21.9,30.10,West,259,2.0,6.0,92,0.00,,,0.00,Wunderground v.1.15,2013-03-25 07:35:00,
2013-03-25 02:37:00,24.0,22.0,30.10,NW,323,5.0,6.0,92,0.00,,,0.00,Wunderground v.1.15,2013-03-25 07:37:00,
2013-03-25 02:38:00,24.0,22.0,30.10,NW,315,2.0,6.0,92,0.00,,,0.00,Wunderground v.1.15,2013-03-25 07:38:00,
2013-03-25 02:40:00,24.0,22.0,30.10,NW,317,2.0,4.0,92,0.00,,,0.00,Wunderground v.1.15,2013-03-25 07:40:00,
2013-03-25 02:42:00,24.0,22.0,30.10,NW,323,2.0,5.0,92,0.00,,,0.00,Wunderground v.1.15,2013-03-25 07:42:00,
2013-03-25 02:43:00,24.1,22.1,30.10,NNW,342,4.0,6.0,92,0.00,,,0.00,Wunderground v.1.15,2013-03-25 07:43:00,
2013-03-25 02:46:00,24.1,22.1,30.10,NNW,333,1.0,6.0,92,0.00,,,0.00,Wunderground v.1.15,2013-03-25 07:46:00,
2013-03-25 02:47:00,24.1,22.1,30.10,NNW,327,1.0,6.0,92,0.00,,,0.00,Wunderground v.1.15,2013-03-25 07:47:00,
2013-03-25 02:49:00,24.1,22.1,30.10,NNW,327,2.0,6.0,92,0.00,,,0.00,Wunderground v.1.15,2013-03-25 07:49:00,
2013-03-25 02:51:00,24.2,22.2,30.10,NNW,327,3.0,4.0,92,0.00,,,0.00,Wunderground v.1.15,2013-03-25 07:51:00,
2013-03-25 02:52:00,24.2,22.2,30.10,NW,326,4.0,6.0,92,0.00,,,0.00,Wunderground v.1.15,2013-03-25 07:52:00,
2013-03-25 02:53:00,24.2,22.2,30.10,NW,325,2.0,6.0,92,0.00,,,0.00,Wunderground v.1.15,2013-03-25 07:53:00,
2013-03-25 02:54:00,24.2,22.2,30.10,NW,325,1.0,6.0,92,0.00,,,0.00,Wunderground v.1.15,2013-03-25 07:54:00,
2013-03-25 02:56:00,24.2,22.2,30.10,NW,324,2.0,6.0,92,0.00,,,0.00,Wunderground v.1.15,2013-03-25 07:56:00,
2013-03-25 02:57:00,24.2,22.2,30.10,NW,324,2.0,6.0,92,0.00,,,0.00,Wunderground v.1.15,2013-03-25 07:57:00,
2013-03-25 02:59:00,24.2,22.2,30.10,NW,324,4.0,6.0,92,0.00,,,0.00,Wunderground v.1.15,2013-03-25 07:59:00,
2013-03-25 03:01:00,24.2,22.2,30.10,NW,324,4.0,5.0,92,0.00,,,0.00,Wunderground v.1.15,2013-03-25 08:01:00,
2013-03-25 03:02:00,24.2,22.2,30.10,NW,324,3.0,5.0,92,0.00,,,0.00,Wunderground v.1.15,2013-03-25 08:02:00,
2013-03-25 03:04:00,24.2,22.2,30.10,NW,306,3.0,5.0,92,0.00,,,0.00,Wunderground v.1.15,2013-03-25 08:04:00,
2013-03-25 03:05:00,24.2,22.2,30.10,NNW,328,3.0,5.0,92,0.00,,,0.00,Wunderground v.1.15,2013-03-25 08:05:00,
2013-03-25 03:07:00,24.2,22.2,30.10,NNW,346,5.0,5.0,92,0.00,,,0.00,Wunderground v.1.15,2013-03-25 08:07:00,
2013-03-25 03:08:00,24.2,22.2,30.10,NW,318,4.0,5.0,92,0.00,,,0.00,Wunderground v.1.15,2013-03-25 08:08:00,
2013-03-25 03:09:00,24.2,22.2,30.10,NW,323,3.0,5.0,92,0.00,,,0.00,Wunderground v.1.15,2013-03-25 08:09:00,
2013-03-25 03:10:00,24.2,22.2,30.10,NW,317,4.0,6.0,92,0.00,,,0.00,Wunderground v.1.15,2013-03-25 08:10:00,
2013-03-25 03:12:00,24.2,22.2,30.10,NW,325,3.0,6.0,92,0.00,,,0.00,Wunderground v.1.15,2013-03-25 08:12:00,
2013-03-25 03:13:00,24.2,22.2,30.10,NW,318,4.0,6.0,92,0.00,,,0.00,Wunderground v.1.15,2013-03-25 08:13:00,
2013-03-25 03:14:00,24.2,22.2,30.10,NW,323,3.0,6.0,92,0.00,,,0.00,Wunderground v.1.15,2013-03-25 08:14:00,
2013-03-25 03:15:00,24.2,22.2,30.10,NNW,331,4.0,6.0,92,0.00,,,0.00,Wunderground v.1.15,2013-03-25 08:15:00,
2013-03-25 03:18:00,24.2,22.2,30.10,NNW,331,4.0,6.0,92,0.00,,,0.00,Wunderground v.1.15,2013-03-25 08:18:00,
2013-03-25 03:19:00,24.2,22.2,30.10,NNW,327,1.0,6.0,92,0.00,,,0.00,Wunderground v.1.15,2013-03-25 08:19:00,
2013-03-25 03:20:00,24.2,22.2,30.10,NNW,327,3.0,3.0,92,0.00,,,0.00,Wunderground v.1.15,2013-03-25 08:20:00,
2013-03-25 03:23:00,24.1,22.1,30.10,NNW,328,2.0,6.0,92,0.00,,,0.00,Wunderground v.1.15,2013-03-25 08:23:00,
2013-03-25 03:24:00,24.2,22.2,30.10,NNW,327,2.0,6.0,92,0.00,,,0.00,Wunderground v.1.15,2013-03-25 08:24:00,
2013-03-25 03:25:00,24.2,22.2,30.10,NNW,327,4.0,6.0,92,0.00,,,0.00,Wunderground v.1.15,2013-03-25 08:25:00,
2013-03-25 03:29:00,24.1,22.1,30.10,NNW,327,2.0,6.0,92,0.00,,,0.00,Wunderground v.1.15,2013-03-25 08:29:00,
2013-03-25 03:30:00,24.1,22.1,30.10,NNW,327,2.0,4.0,92,0.00,,,0.00,Wunderground v.1.15,2013-03-25 08:30:00,
2013-03-25 03:34:00,24.2,22.2,30.10,NNW,327,2.0,4.0,92,0.00,,,0.00,Wunderground v.1.15,2013-03-25 08:34:00,
2013-03-25 03:35:00,24.1,22.1,30.10,NNW,327,0.0,4.0,92,0.00,,,0.00,Wunderground v.1.15,2013-03-25 08:35:00,
2013-03-25 03:37:00,24.2,22.2,30.10,NE,35,6.0,6.0,92,0.00,,,0.00,Wunderground v.1.15,2013-03-25 08:37:00,
2013-03-25 03:39:00,24.1,22.1,30.10,WNW,299,0.0,2.0,92,0.00,,,0.00,Wunderground v.1.15,2013-03-25 08:39:00,
2013-03-25 03:40:00,24.2,22.2,30.10,NNW,341,3.0,5.0,92,0.00,,,0.00,Wunderground v.1.15,2013-03-25 08:40:00,
2013-03-25 03:41:00,24.2,22.2,30.10,NW,314,4.0,5.0,92,0.00,,,0.00,Wunderground v.1.15,2013-03-25 08:41:00,
2013-03-25 03:42:00,24.2,22.2,30.10,NW,314,5.0,5.0,92,0.00,,,0.00,Wunderground v.1.15,2013-03-25 08:42:00,
2013-03-25 03:44:00,24.2,22.2,30.10,NW,313,2.0,5.0,92,0.00,,,0.00,Wunderground v.1.15,2013-03-25 08:44:00,
2013-03-25 03:45:00,24.2,22.2,30.10,NNW,331,3.0,6.0,92,0.00,,,0.00,Wunderground v.1.15,2013-03-25 08:45:00,
2013-03-25 03:48:00,24.2,22.2,30.10,NW,325,2.0,6.0,92,0.00,,,0.00,Wunderground v.1.15,2013-03-25 08:48:00,
2013-03-25 03:50:00,24.2,22.2,30.10,NW,321,4.0,5.0,92,0.00,,,0.00,Wunderground v.1.15,2013-03-25 08:50:00,
2013-03-25 03:53:00,24.2,22.2,30.10,North,355,2.0,5.0,92,0.00,,,0.00,Wunderground v.1.15,2013-03-25 08:53:00,
2013-03-25 03:55:00,24.2,22.2,30.10,NW,317,5.0,6.0,92,0.00,,,0.00,Wunderground v.1.15,2013-03-25 08:55:00,
2013-03-25 03:58:00,24.2,22.2,30.10,NNW,329,4.0,7.0,92,0.00,,,0.00,Wunderground v.1.15,2013-03-25 08:58:00,
2013-03-25 04:00:00,24.3,22.3,30.10,NNW,333,3.0,5.0,92,0.00,,,0.00,Wunderground v.1.15,2013-03-25 09:00:00,
2013-03-25 04:01:00,24.3,22.3,30.10,NW,325,5.0,5.0,92,0.00,,,0.00,Wunderground v.1.15,2013-03-25 09:01:00,
2013-03-25 04:03:00,24.2,22.2,30.10,WNW,297,5.0,6.0,92,0.00,,,0.00,Wunderground v.1.15,2013-03-25 09:03:00,
2013-03-25 04:04:00,24.2,22.2,30.10,NW,326,5.0,6.0,92,0.00,,,0.00,Wunderground v.1.15,2013-03-25 09:04:00,
2013-03-25 04:05:00,24.2,22.2,30.10,NW,325,4.0,6.0,92,0.00,,,0.00,Wunderground v.1.15,2013-03-25 09:05:00,
2013-03-25 04:07:00,24.2,22.2,30.10,NNW,333,2.0,6.0,92,0.00,,,0.00,Wunderground v.1.15,2013-03-25 09:07:00,
2013-03-25 04:08:00,24.2,22.2,30.10,NW,314,3.0,6.0,92,0.00,,,0.00,Wunderground v.1.15,2013-03-25 09:08:00,
2013-03-25 04:09:00,24.2,22.2,30.10,NNW,327,1.0,6.0,92,0.00,,,0.00,Wunderground v.1.15,2013-03-25 09:09:00,
2013-03-25 04:10:00,24.2,22.2,30.10,NW,324,4.0,6.0,92,0.00,,,0.00,Wunderground v.1.15,2013-03-25 09:10:00,
2013-03-25 04:13:00,24.2,22.2,30.10,NW,311,3.0,6.0,92,0.00,,,0.00,Wunderground v.1.15,2013-03-25 09:13:00,
2013-03-25 04:14:00,24.2,22.2,30.10,NW,325,4.0,6.0,92,0.00,,,0.00,Wunderground v.1.15,2013-03-25 09:14:00,
2013-03-25 04:15:00,24.2,22.2,30.10,NNW,328,2.0,6.0,92,0.00,,,0.00,Wunderground v.1.15,2013-03-25 09:15:00,
2013-03-25 04:18:00,24.2,22.2,30.10,NW,323,4.0,6.0,92,0.00,,,0.00,Wunderground v.1.15,2013-03-25 09:18:00,
2013-03-25 04:19:00,24.2,22.2,30.10,NW,320,4.0,6.0,92,0.00,,,0.00,Wunderground v.1.15,2013-03-25 09:19:00,
2013-03-25 04:20:00,24.2,22.2,30.10,NW,320,1.0,3.0,92,0.00,,,0.00,Wunderground v.1.15,2013-03-25 09:20:00,
2013-03-25 04:21:00,24.2,22.2,30.10,NNW,329,1.0,4.0,92,0.00,,,0.00,Wunderground v.1.15,2013-03-25 09:21:00,
2013-03-25 04:23:00,24.2,22.2,30.10,NW,325,3.0,5.0,92,0.00,,,0.00,Wunderground v.1.15,2013-03-25 09:23:00,
2013-03-25 04:24:00,24.3,22.3,30.10,NW,320,1.0,5.0,92,0.00,,,0.00,Wunderground v.1.15,2013-03-25 09:24:00,
2013-03-25 04:25:00,24.3,22.3,30.10,NNW,335,2.0,5.0,92,0.00,,,0.00,Wunderground v.1.15,2013-03-25 09:25:00,
2013-03-25 04:27:00,24.3,22.3,30.10,NW,326,4.0,5.0,92,0.00,,,0.00,Wunderground v.1.15,2013-03-25 09:27:00,
2013-03-25 04:28:00,24.3,22.3,30.10,NW,323,4.0,6.0,92,0.00,,,0.00,Wunderground v.1.15,2013-03-25 09:28:00,
2013-03-25 04:29:00,24.3,22.3,30.10,NW,326,4.0,5.0,92,0.00,,,0.00,Wunderground v.1.15,2013-03-25 09:29:00,
2013-03-25 04:32:00,24.2,22.2,30.10,NW,321,4.0,6.0,92,0.00,,,0.00,Wunderground v.1.15,2013-03-25 09:32:00,
2013-03-25 04:33:00,24.2,22.2,30.10,NNW,336,0.0,6.0,92,0.00,,,0.00,Wunderground v.1.15,2013-03-25 09:33:00,
2013-03-25 04:35:00,24.2,22.2,30.10,NNW,329,3.0,6.0,92,0.00,,,0.00,Wunderground v.1.15,2013-03-25 09:35:00,
2013-03-25 04:37:00,24.2,22.2,30.10,NW,325,1.0,6.0,92,0.00,,,0.00,Wunderground v.1.15,2013-03-25 09:37:00,
2013-03-25 04:38:00,24.1,22.1,30.11,NW,325,4.0,6.0,92,0.00,,,0.00,Wunderground v.1.15,2013-03-25 09:38:00,
2013-03-25 04:40:00,24.1,21.9,30.11,NNW,332,3.0,4.0,91,0.00,,,0.00,Wunderground v.1.15,2013-03-25 09:40:00,
2013-03-25 04:42:00,24.0,21.8,30.11,NW,320,2.0,5.0,91,0.00,,,0.00,Wunderground v.1.15,2013-03-25 09:42:00,
2013-03-25 04:44:00,23.9,21.7,30.11,NW,321,4.0,5.0,91,0.00,,,0.00,Wunderground v.1.15,2013-03-25 09:44:00,
2013-03-25 04:45:00,23.9,21.7,30.11,NW,318,3.0,6.0,91,0.00,,,0.00,Wunderground v.1.15,2013-03-25 09:45:00,
2013-03-25 04:47:00,23.9,21.9,30.11,NNW,330,4.0,6.0,92,0.00,,,0.00,Wunderground v.1.15,2013-03-25 09:47:00,
2013-03-25 04:49:00,23.8,21.8,30.11,NW,323,4.0,6.0,92,0.00,,,0.00,Wunderground v.1.15,2013-03-25 09:49:00,
2013-03-25 04:50:00,23.8,21.8,30.11,NW,323,4.0,5.0,92,0.00,,,0.00,Wunderground v.1.15,2013-03-25 09:50:00,
2013-03-25 04:52:00,23.8,21.8,30.11,NW,322,2.0,5.0,92,0.00,,,0.00,Wunderground v.1.15,2013-03-25 09:52:00,
2013-03-25 04:54:00,23.8,21.8,30.11,NW,323,3.0,5.0,92,0.00,,,0.00,Wunderground v.1.15,2013-03-25 09:54:00,
2013-03-25 04:55:00,23.8,21.8,30.11,NW,317,3.0,5.0,92,0.00,,,0.00,Wunderground v.1.15,2013-03-25 09:55:00,
2013-03-25 04:57:00,23.7,21.7,30.11,NW,326,2.0,5.0,92,0.00,,,0.00,Wunderground v.1.15,2013-03-25 09:57:00,
2013-03-25 04:59:00,23.7,21.7,30.11,NW,324,4.0,5.0,92,0.00,,,0.00,Wunderground v.1.15,2013-03-25 09:59:00,
2013-03-25 05:00:00,23.7,21.7,30.11,NW,323,3.0,6.0,92,0.00,,,0.00,Wunderground v.1.15,2013-03-25 10:00:00,
2013-03-25 05:02:00,23.7,21.7,30.11,NNW,328,2.0,6.0,92,0.00,,,0.00,Wunderground v.1.15,2013-03-25 10:02:00,
2013-03-25 05:03:00,23.7,21.7,30.11,NNW,328,3.0,6.0,92,0.00,,,0.00,Wunderground v.1.15,2013-03-25 10:03:00,
2013-03-25 05:05:00,23.7,21.7,30.11,NNW,328,2.0,6.0,92,0.00,,,0.00,Wunderground v.1.15,2013-03-25 10:05:00,
2013-03-25 05:07:00,23.7,21.7,30.11,NW,321,4.0,6.0,92,0.00,,,0.00,Wunderground v.1.15,2013-03-25 10:07:00,
2013-03-25 05:08:00,23.7,21.7,30.11,NNW,327,4.0,6.0,92,0.00,,,0.00,Wunderground v.1.15,2013-03-25 10:08:00,
2013-03-25 05:10:00,23.8,21.8,30.11,NW,320,5.0,6.0,92,0.00,,,0.00,Wunderground v.1.15,2013-03-25 10:10:00,
2013-03-25 05:12:00,23.8,21.8,30.11,NW,325,4.0,6.0,92,0.00,,,0.00,Wunderground v.1.15,2013-03-25 10:12:00,
2013-03-25 05:13:00,23.8,21.8,30.11,NW,325,3.0,6.0,92,0.00,,,0.00,Wunderground v.1.15,2013-03-25 10:13:00,
2013-03-25 05:15:00,23.8,21.8,30.12,NNW,327,4.0,6.0,92,0.00,,,0.00,Wunderground v.1.15,2013-03-25 10:15:00,
2013-03-25 05:18:00,23.9,21.9,30.12,NW,323,4.0,6.0,92,0.00,,,0.00,Wunderground v.1.15,2013-03-25 10:18:00,
2013-03-25 05:19:00,23.9,21.9,30.11,NW,323,4.0,6.0,92,0.00,,,0.00,Wunderground v.1.15,2013-03-25 10:19:00,
2013-03-25 05:20:00,23.9,21.9,30.12,NW,325,2.0,4.0,92,0.00,,,0.00,Wunderground v.1.15,2013-03-25 10:20:00,
2013-03-25 05:23:00,23.9,21.9,30.12,NW,323,3.0,5.0,92,0.00,,,0.00,Wunderground v.1.15,2013-03-25 10:23:00,
2013-03-25 05:24:00,23.9,21.9,30.12,NNW,329,4.0,5.0,92,0.00,,,0.00,Wunderground v.1.15,2013-03-25 10:24:00,
2013-03-25 05:25:00,23.9,21.9,30.12,NNW,329,3.0,5.0,92,0.00,,,0.00,Wunderground v.1.15,2013-03-25 10:25:00,
2013-03-25 05:28:00,23.9,21.9,30.12,NW,317,2.0,5.0,92,0.00,,,0.00,Wunderground v.1.15,2013-03-25 10:28:00,
2013-03-25 05:29:00,23.9,21.9,30.12,NW,324,1.0,3.0,92,0.00,,,0.00,Wunderground v.1.15,2013-03-25 10:29:00,
2013-03-25 05:31:00,23.9,21.9,30.12,NNW,329,2.0,4.0,92,0.00,,,0.00,Wunderground v.1.15,2013-03-25 10:31:00,
2013-03-25 05:33:00,23.9,21.9,30.12,NW,323,2.0,4.0,92,0.00,,,0.00,Wunderground v.1.15,2013-03-25 10:33:00,
2013-03-25 05:35:00,24.0,22.0,30.12,NNW,329,2.0,5.0,92,0.00,,,0.00,Wunderground v.1.15,2013-03-25 10:35:00,
2013-03-25 05:36:00,24.0,22.0,30.12,WNW,296,6.0,6.0,92,0.00,,,0.00,Wunderground v.1.15,2013-03-25 10:36:00,
2013-03-25 05:38:00,24.0,22.0,30.12,NNW,331,3.0,6.0,92,0.00,,,0.00,Wunderground v.1.15,2013-03-25 10:38:00,
2013-03-25 05:39:00,24.0,22.0,30.12,NNW,331,2.0,6.0,92,0.00,,,0.00,Wunderground v.1.15,2013-03-25 10:39:00,
2013-03-25 05:40:00,24.0,22.0,30.12,NW,325,2.0,4.0,92,0.00,,,0.00,Wunderground v.1.15,2013-03-25 10:40:00,
2013-03-25 05:41:00,24.0,22.0,30.12,NW,320,3.0,5.0,92,0.00,,,0.00,Wunderground v.1.15,2013-03-25 10:41:00,
2013-03-25 05:43:00,24.0,22.0,30.12,NW,319,5.0,6.0,92,0.00,,,0.00,Wunderground v.1.15,2013-03-25 10:43:00,
2013-03-25 05:44:00,24.0,22.0,30.12,NW,323,3.0,6.0,92,0.00,,,0.00,Wunderground v.1.15,2013-03-25 10:44:00,
2013-03-25 05:45:00,24.1,22.1,30.12,NNW,329,2.0,6.0,92,0.00,,,0.00,Wunderground v.1.15,2013-03-25 10:45:00,
2013-03-25 05:47:00,24.1,22.1,30.12,NW,319,3.0,6.0,92,0.00,,,0.00,Wunderground v.1.15,2013-03-25 10:47:00,
2013-03-25 05:49:00,24.1,22.1,30.12,NW,323,2.0,6.0,92,0.00,,,0.00,Wunderground v.1.15,2013-03-25 10:49:00,
2013-03-25 05:50:00,24.1,22.1,30.13,NW,326,2.0,4.0,92,0.00,,,0.00,Wunderground v.1.15,2013-03-25 10:50:00,
2013-03-25 05:52:00,24.2,22.2,30.13,NW,324,2.0,4.0,92,0.00,,,0.00,Wunderground v.1.15,2013-03-25 10:52:00,
2013-03-25 05:54:00,24.2,22.2,30.13,NW,321,4.0,4.0,92,0.00,,,0.00,Wunderground v.1.15,2013-03-25 10:54:00,
2013-03-25 05:55:00,24.2,22.2,30.13,NW,325,1.0,5.0,92,0.00,,,0.00,Wunderground v.1.15,2013-03-25 10:55:00,
2013-03-25 05:57:00,24.2,22.2,30.13,NW,310,1.0,5.0,92,0.00,,,0.00,Wunderground v.1.15,2013-03-25 10:57:00,
2013-03-25 05:59:00,24.1,22.1,30.13,NW,310,0.0,5.0,92,0.00,,,0.00,Wunderground v.1.15,2013-03-25 10:59:00,
2013-03-25 06:00:00,24.1,22.1,30.13,NW,310,1.0,2.0,92,0.00,,,0.00,Wunderground v.1.15,2013-03-25 11:00:00,
2013-03-25 06:02:00,24.1,22.1,30.13,NW,310,2.0,4.0,92,0.00,,,0.00,Wunderground v.1.15,2013-03-25 11:02:00,
2013-03-25 06:03:00,24.1,22.1,30.13,NW,310,1.0,4.0,92,0.00,,,0.00,Wunderground v.1.15,2013-03-25 11:03:00,
2013-03-25 06:04:00,24.1,22.1,30.13,NW,312,4.0,4.0,92,0.00,,,0.00,Wunderground v.1.15,2013-03-25 11:04:00,
2013-03-25 06:05:00,24.0,21.8,30.13,NW,314,1.0,4.0,91,0.00,,,0.00,Wunderground v.1.15,2013-03-25 11:05:00,
2013-03-25 06:08:00,24.0,22.0,30.13,NW,322,2.0,4.0,92,0.00,,,0.00,Wunderground v.1.15,2013-03-25 11:08:00,
2013-03-25 06:09:00,24.0,22.0,30.13,NW,322,4.0,4.0,92,0.00,,,0.00,Wunderground v.1.15,2013-03-25 11:09:00,
2013-03-25 06:10:00,24.0,22.0,30.13,NW,317,4.0,4.0,92,0.00,,,0.00,Wunderground v.1.15,2013-03-25 11:10:00,
2013-03-25 06:13:00,24.0,22.0,30.13,NW,318,2.0,5.0,92,0.00,,,0.00,Wunderground v.1.15,2013-03-25 11:13:00,
2013-03-25 06:14:00,24.0,22.0,30.13,NW,321,2.0,5.0,92,0.00,,,0.00,Wunderground v.1.15,2013-03-25 11:14:00,
2013-03-25 06:16:00,24.0,22.0,30.13,NW,325,2.0,6.0,92,0.00,,,0.00,Wunderground v.1.15,2013-03-25 11:16:00,
2013-03-25 06:19:00,23.9,21.7,30.13,NW,317,4.0,6.0,91,0.00,,,0.00,Wunderground v.1.15,2013-03-25 11:19:00,
2013-03-25 06:23:00,23.8,21.6,30.13,NW,323,3.0,4.0,91,0.00,,,0.00,Wunderground v.1.15,2013-03-25 11:23:00,
2013-03-25 06:24:00,23.8,21.6,30.13,NW,323,3.0,5.0,91,0.00,,,0.00,Wunderground v.1.15,2013-03-25 11:24:00,
2013-03-25 06:28:00,23.5,21.3,30.13,NW,324,2.0,5.0,91,0.00,,,0.00,Wunderground v.1.15,2013-03-25 11:28:00,
2013-03-25 06:29:00,23.5,21.3,30.13,NW,324,0.0,5.0,91,0.00,,,0.00,Wunderground v.1.15,2013-03-25 11:29:00,
2013-03-25 06:34:00,23.3,21.1,30.14,NW,307,1.0,5.0,91,0.00,,,0.00,Wunderground v.1.15,2013-03-25 11:34:00,
2013-03-25 06:35:00,23.2,21.0,30.14,NW,318,1.0,5.0,91,0.00,,,0.00,Wunderground v.1.15,2013-03-25 11:35:00,
2013-03-25 06:39:00,23.0,20.8,30.14,NW,311,0.0,5.0,91,0.00,,,0.00,Wunderground v.1.15,2013-03-25 11:39:00,
2013-03-25 06:40:00,23.0,20.8,30.14,NW,311,1.0,3.0,91,0.00,,,0.00,Wunderground v.1.15,2013-03-25 11:40:00,
2013-03-25 06:44:00,22.8,20.6,30.14,NW,311,2.0,4.0,91,0.00,,,0.00,Wunderground v.1.15,2013-03-25 11:44:00,
2013-03-25 06:45:00,22.8,20.6,30.14,NW,315,1.0,4.0,91,0.00,,,0.00,Wunderground v.1.15,2013-03-25 11:45:00,
2013-03-25 06:49:00,22.6,20.4,30.14,WNW,290,1.0,5.0,91,0.00,,,0.00,Wunderground v.1.15,2013-03-25 11:49:00,
2013-03-25 06:50:00,22.6,20.4,30.14,WNW,290,2.0,3.0,91,0.00,,,0.00,Wunderground v.1.15,2013-03-25 11:50:00,
2013-03-25 06:51:00,22.6,20.4,30.14,WNW,290,0.0,3.0,91,0.00,,,0.00,Wunderground v.1.15,2013-03-25 11:51:00,
2013-03-25 06:54:00,22.5,20.3,30.14,NW,308,2.0,4.0,91,0.00,,,0.00,Wunderground v.1.15,2013-03-25 11:54:00,
2013-03-25 06:55:00,22.5,20.3,30.14,NW,308,0.0,4.0,91,0.00,,,0.00,Wunderground v.1.15,2013-03-25 11:55:00,
2013-03-25 06:57:00,22.5,20.3,30.14,NW,308,0.0,4.0,91,0.00,,,0.00,Wunderground v.1.15,2013-03-25 11:57:00,
2013-03-25 06:59:00,22.4,20.2,30.14,NW,314,4.0,4.0,91,0.00,,,0.00,Wunderground v.1.15,2013-03-25 11:59:00,
2013-03-25 07:00:00,22.4,20.2,30.14,NW,314,2.0,4.0,91,0.00,,,0.00,Wunderground v.1.15,2013-03-25 12:00:00,
2013-03-25 07:02:00,22.3,20.3,30.15,NW,318,2.0,4.0,92,0.00,,,0.00,Wunderground v.1.15,2013-03-25 12:02:00,
2013-03-25 07:04:00,22.3,20.3,30.15,NW,313,1.0,4.0,92,0.00,,,0.00,Wunderground v.1.15,2013-03-25 12:04:00,
2013-03-25 07:05:00,22.3,20.3,30.15,NW,313,2.0,4.0,92,0.00,,,0.00,Wunderground v.1.15,2013-03-25 12:05:00,
2013-03-25 07:08:00,22.3,20.3,30.15,NW,309,1.0,4.0,92,0.00,,,0.00,Wunderground v.1.15,2013-03-25 12:08:00,
2013-03-25 07:09:00,22.3,20.3,30.15,NW,312,4.0,4.0,92,0.00,,,0.00,Wunderground v.1.15,2013-03-25 12:09:00,
2013-03-25 07:12:00,22.2,20.0,30.15,NW,309,1.0,4.0,91,0.00,,,0.00,Wunderground v.1.15,2013-03-25 12:12:00,
2013-03-25 07:13:00,22.2,20.0,30.15,NW,325,5.0,5.0,91,0.00,,,0.00,Wunderground v.1.15,2013-03-25 12:13:00,
2013-03-25 07:15:00,22.2,20.2,30.15,NNW,327,3.0,5.0,92,0.00,,,0.00,Wunderground v.1.15,2013-03-25 12:15:00,
2013-03-25 07:18:00,22.2,20.2,30.15,NW,324,2.0,5.0,92,0.00,,,0.00,Wunderground v.1.15,2013-03-25 12:18:00,
2013-03-25 07:20:00,22.2,20.0,30.15,NW,323,1.0,2.0,91,0.00,,,0.00,Wunderground v.1.15,2013-03-25 12:20:00,
2013-03-25 07:23:00,22.2,20.0,30.15,NW,321,2.0,4.0,91,0.00,,,0.00,Wunderground v.1.15,2013-03-25 12:23:00,
2013-03-25 07:24:00,22.2,20.0,30.15,NW,326,3.0,4.0,91,0.00,,,0.00,Wunderground v.1.15,2013-03-25 12:24:00,
2013-03-25 07:25:00,22.1,20.1,30.15,NNW,333,1.0,4.0,92,0.00,,,0.00,Wunderground v.1.15,2013-03-25 12:25:00,
2013-03-25 07:28:00,22.1,20.1,30.15,WNW,299,1.0,4.0,92,0.00,,,0.00,Wunderground v.1.15,2013-03-25 12:28:00,
2013-03-25 07:29:00,22.1,20.1,30.16,NW,315,1.0,2.0,92,0.00,,,0.00,Wunderground v.1.15,2013-03-25 12:29:00,
2013-03-25 07:30:00,22.1,20.1,30.15,NW,315,2.0,3.0,92,0.00,,,0.00,Wunderground v.1.15,2013-03-25 12:30:00,
2013-03-25 07:33:00,22.1,20.1,30.16,NNW,333,2.0,4.0,92,0.00,,,0.00,Wunderground v.1.15,2013-03-25 12:33:00,
2013-03-25 07:34:00,22.1,20.1,30.16,NW,325,4.0,4.0,92,0.00,,,0.00,Wunderground v.1.15,2013-03-25 12:34:00,
2013-03-25 07:36:00,22.1,20.1,30.16,NW,321,1.0,5.0,92,0.00,,,0.00,Wunderground v.1.15,2013-03-25 12:36:00,
2013-03-25 07:38:00,22.1,20.1,30.16,NW,321,4.0,5.0,92,0.00,,,0.00,Wunderground v.1.15,2013-03-25 12:38:00,
2013-03-25 07:39:00,22.1,20.1,30.16,NW,319,3.0,4.0,92,0.00,,,0.00,Wunderground v.1.15,2013-03-25 12:39:00,
2013-03-25 07:41:00,22.1,20.1,30.16,NW,319,4.0,4.0,92,0.00,,,0.00,Wunderground v.1.15,2013-03-25 12:41:00,
2013-03-25 07:44:00,22.1,19.9,30.16,NW,325,3.0,4.0,91,0.00,,,0.00,Wunderground v.1.15,2013-03-25 12:44:00,
2013-03-25 07:45:00,22.1,19.9,30.16,NW,325,1.0,4.0,91,0.00,,,0.00,Wunderground v.1.15,2013-03-25 12:45:00,
2013-03-25 07:46:00,22.1,19.9,30.16,NW,325,5.0,5.0,91,0.00,,,0.00,Wunderground v.1.15,2013-03-25 12:46:00,
2013-03-25 07:50:00,22.2,20.0,30.16,NW,323,3.0,4.0,91,0.00,,,0.00,Wunderground v.1.15,2013-03-25 12:50:00,
2013-03-25 07:51:00,22.2,20.0,30.16,NNW,330,4.0,4.0,91,0.00,,,0.00,Wunderground v.1.15,2013-03-25 12:51:00,
2013-03-25 07:52:00,22.2,20.0,30.16,NNW,330,5.0,5.0,91,0.00,,,0.00,Wunderground v.1.15,2013-03-25 12:52:00,
2013-03-25 07:55:00,22.2,20.0,30.16,NW,317,1.0,5.0,91,0.00,,,0.00,Wunderground v.1.15,2013-03-25 12:55:00,
2013-03-25 07:57:00,22.2,20.0,30.17,NW,316,3.0,5.0,91,0.00,,,0.00,Wunderground v.1.15,2013-03-25 12:57:00,
2013-03-25 08:00:00,22.3,20.1,30.17,NW,322,4.0,4.0,91,0.00,,,0.00,Wunderground v.1.15,2013-03-25 13:00:00,
2013-03-25 08:01:00,22.3,20.1,30.17,NW,315,3.0,4.0,91,0.00,,,0.00,Wunderground v.1.15,2013-03-25 13:01:00,
2013-03-25 08:02:00,22.4,20.2,30.17,NW,321,4.0,6.0,91,0.00,,,0.00,Wunderground v.1.15,2013-03-25 13:02:00,
2013-03-25 08:03:00,22.4,20.2,30.17,WNW,300,2.0,6.0,91,0.00,,,0.00,Wunderground v.1.15,2013-03-25 13:03:00,
2013-03-25 08:05:00,22.4,20.2,30.17,NW,317,1.0,6.0,91,0.00,,,0.00,Wunderground v.1.15,2013-03-25 13:05:00,
2013-03-25 08:06:00,22.4,20.2,30.17,WNW,284,2.0,6.0,91,0.00,,,0.00,Wunderground v.1.15,2013-03-25 13:06:00,
2013-03-25 08:08:00,22.5,20.3,30.17,NW,325,4.0,6.0,91,0.00,,,0.00,Wunderground v.1.15,2013-03-25 13:08:00,
2013-03-25 08:10:00,22.5,20.3,30.17,NNW,327,4.0,5.0,91,0.00,,,0.00,Wunderground v.1.15,2013-03-25 13:10:00,
2013-03-25 08:11:00,22.5,20.3,30.17,NW,306,4.0,5.0,91,0.00,,,0.00,Wunderground v.1.15,2013-03-25 13:11:00,
2013-03-25 08:14:00,22.6,20.4,30.17,NNW,329,2.0,6.0,91,0.00,,,0.00,Wunderground v.1.15,2013-03-25 13:14:00,
2013-03-25 08:15:00,22.6,20.4,30.17,NW,312,2.0,6.0,91,0.00,,,0.00,Wunderground v.1.15,2013-03-25 13:15:00,
2013-03-25 08:17:00,22.7,20.5,30.17,NNW,333,4.0,6.0,91,0.00,,,0.00,Wunderground v.1.15,2013-03-25 13:17:00,
2013-03-25 08:19:00,22.7,20.5,30.17,NW,326,2.0,6.0,91,0.00,,,0.00,Wunderground v.1.15,2013-03-25 13:19:00,
2013-03-25 08:20:00,22.7,20.5,30.17,NW,321,5.0,5.0,91,0.00,,,0.00,Wunderground v.1.15,2013-03-25 13:20:00,
2013-03-25 08:22:00,22.7,20.5,30.17,NNW,343,2.0,8.0,91,0.00,,,0.00,Wunderground v.1.15,2013-03-25 13:22:00,
2013-03-25 08:25:00,22.8,20.6,30.18,NNW,333,5.0,8.0,91,0.00,,,0.00,Wunderground v.1.15,2013-03-25 13:25:00,
2013-03-25 08:26:00,22.8,20.6,30.18,NNW,335,4.0,8.0,91,0.00,,,0.00,Wunderground v.1.15,2013-03-25 13:26:00,
2013-03-25 08:28:00,22.9,20.7,30.18,NW,325,2.0,8.0,91,0.00,,,0.00,Wunderground v.1.15,2013-03-25 13:28:00,
2013-03-25 08:30:00,23.0,20.8,30.18,NW,326,2.0,6.0,91,0.00,,,0.00,Wunderground v.1.15,2013-03-25 13:30:00,
2013-03-25 08:31:00,23.0,20.8,30.18,NNW,329,4.0,6.0,91,0.00,,,0.00,Wunderground v.1.15,2013-03-25 13:31:00,
2013-03-25 08:32:00,23.0,20.8,30.18,NW,323,4.0,6.0,91,0.00,,,0.00,Wunderground v.1.15,2013-03-25 13:32:00,
2013-03-25 08:33:00,23.1,20.9,30.18,NW,325,5.0,6.0,91,0.00,,,0.00,Wunderground v.1.15,2013-03-25 13:33:00,
2013-03-25 08:35:00,23.1,20.6,30.18,NW,324,3.0,6.0,90,0.00,,,0.00,Wunderground v.1.15,2013-03-25 13:35:00,
2013-03-25 08:36:00,23.1,20.6,30.18,NW,325,4.0,6.0,90,0.00,,,0.00,Wunderground v.1.15,2013-03-25 13:36:00,
2013-03-25 08:38:00,23.2,20.7,30.18,NNW,330,2.0,6.0,90,0.00,,,0.00,Wunderground v.1.15,2013-03-25 13:38:00,
2013-03-25 08:40:00,23.3,20.8,30.19,NW,319,3.0,4.0,90,0.00,,,0.00,Wunderground v.1.15,2013-03-25 13:40:00,
2013-03-25 08:43:00,23.4,20.9,30.18,NW,325,5.0,5.0,90,0.00,,,0.00,Wunderground v.1.15,2013-03-25 13:43:00,
2013-03-25 08:44:00,23.4,20.9,30.19,NW,316,0.0,5.0,90,0.00,,,0.00,Wunderground v.1.15,2013-03-25 13:44:00,
2013-03-25 08:46:00,23.5,21.0,30.19,NW,324,2.0,5.0,90,0.00,,,0.00,Wunderground v.1.15,2013-03-25 13:46:00,
2013-03-25 08:48:00,23.6,21.1,30.19,NNW,342,1.0,5.0,90,0.00,,,0.00,Wunderground v.1.15,2013-03-25 13:48:00,
2013-03-25 08:49:00,23.6,21.1,30.19,WNW,300,2.0,5.0,90,0.00,,,0.00,Wunderground v.1.15,2013-03-25 13:49:00,
2013-03-25 08:51:00,23.7,21.2,30.19,NW,325,5.0,7.0,90,0.00,,,0.00,Wunderground v.1.15,2013-03-25 13:51:00,
2013-03-25 08:53:00,23.7,20.9,30.19,NW,321,2.0,7.0,89,0.00,,,0.00,Wunderground v.1.15,2013-03-25 13:53:00,
2013-03-25 08:54:00,23.8,21.0,30.19,NW,315,4.0,7.0,89,0.00,,,0.00,Wunderground v.1.15,2013-03-25 13:54:00,
2013-03-25 08:57:00,23.9,21.1,30.19,NW,309,3.0,7.0,89,0.00,,,0.00,Wunderground v.1.15,2013-03-25 13:57:00,
2013-03-25 08:58:00,23.9,21.1,30.19,NNW,336,5.0,7.0,89,0.00,,,0.00,Wunderground v.1.15,2013-03-25 13:58:00,
2013-03-25 08:59:00,24.0,21.2,30.19,NW,305,3.0,7.0,89,0.00,,,0.00,Wunderground v.1.15,2013-03-25 13:59:00,
2013-03-25 09:02:00,24.1,21.3,30.19,NW,319,1.0,6.0,89,0.00,,,0.00,Wunderground v.1.15,2013-03-25 14:02:00,
2013-03-25 09:03:00,24.2,21.4,30.19,NNW,328,5.0,6.0,89,0.00,,,0.00,Wunderground v.1.15,2013-03-25 14:03:00,
2013-03-25 09:04:00,24.2,21.2,30.19,NNW,330,4.0,6.0,88,0.00,,,0.00,Wunderground v.1.15,2013-03-25 14:04:00,
2013-03-25 09:07:00,24.3,21.3,30.19,NNW,333,2.0,7.0,88,0.00,,,0.00,Wunderground v.1.15,2013-03-25 14:07:00,
2013-03-25 09:08:00,24.3,21.3,30.19,NW,323,5.0,7.0,88,0.00,,,0.00,Wunderground v.1.15,2013-03-25 14:08:00,
2013-03-25 09:09:00,24.3,21.3,30.19,NNW,329,6.0,6.0,88,0.00,,,0.00,Wunderground v.1.15,2013-03-25 14:09:00,
2013-03-25 09:10:00,24.3,21.3,30.19,NNW,333,8.0,8.0,88,0.00,,,0.00,Wunderground v.1.15,2013-03-25 14:10:00,
2013-03-25 09:13:00,24.4,21.4,30.19,NW,321,3.0,8.0,88,0.00,,,0.00,Wunderground v.1.15,2013-03-25 14:13:00,
2013-03-25 09:14:00,24.4,21.1,30.19,NW,325,5.0,8.0,87,0.00,,,0.00,Wunderground v.1.15,2013-03-25 14:14:00,
2013-03-25 09:15:00,24.4,21.1,30.19,NW,313,5.0,8.0,87,0.00,,,0.00,Wunderground v.1.15,2013-03-25 14:15:00,
2013-03-25 09:18:00,24.6,21.3,30.20,NW,323,4.0,8.0,87,0.00,,,0.00,Wunderground v.1.15,2013-03-25 14:18:00,
2013-03-25 09:19:00,24.6,21.3,30.20,NW,320,5.0,8.0,87,0.00,,,0.00,Wunderground v.1.15,2013-03-25 14:19:00,
2013-03-25 09:20:00,24.6,21.3,30.20,NW,317,4.0,5.0,87,0.00,,,0.00,Wunderground v.1.15,2013-03-25 14:20:00,
2013-03-25 09:24:00,24.7,21.4,30.20,NW,325,5.0,8.0,87,0.00,,,0.00,Wunderground v.1.15,2013-03-25 14:24:00,
2013-03-25 09:25:00,24.7,21.4,30.20,NW,321,6.0,8.0,87,0.00,,,0.00,Wunderground v.1.15,2013-03-25 14:25:00,
2013-03-25 09:29:00,24.8,21.5,30.20,NW,325,6.0,8.0,87,0.00,,,0.00,Wunderground v.1.15,2013-03-25 14:29:00,
2013-03-25 09:30:00,24.7,21.4,30.20,NW,321,3.0,5.0,87,0.00,,,0.00,Wunderground v.1.15,2013-03-25 14:30:00,
2013-03-25 09:31:00,24.8,21.5,30.20,NW,320,5.0,7.0,87,0.00,,,0.00,Wunderground v.1.15,2013-03-25 14:31:00,
2013-03-25 09:34:00,24.8,21.5,30.20,NW,306,5.0,7.0,87,0.00,,,0.00,Wunderground v.1.15,2013-03-25 14:34:00,
2013-03-25 09:35:00,24.8,21.5,30.20,NW,322,5.0,7.0,87,0.00,,,0.00,Wunderground v.1.15,2013-03-25 14:35:00,
2013-03-25 09:36:00,24.8,21.5,30.20,NNW,327,4.0,7.0,87,0.00,,,0.00,Wunderground v.1.15,2013-03-25 14:36:00,
2013-03-25 09:39:00,24.9,21.6,30.21,NNW,327,4.0,6.0,87,0.00,,,0.00,Wunderground v.1.15,2013-03-25 14:39:00,
2013-03-25 09:40:00,24.9,21.6,30.21,NNW,327,2.0,6.0,87,0.00,,,0.00,Wunderground v.1.15,2013-03-25 14:40:00,
2013-03-25 09:41:00,25.0,21.7,30.21,NW,323,3.0,6.0,87,0.00,,,0.00,Wunderground v.1.15,2013-03-25 14:41:00,
2013-03-25 09:44:00,25.0,21.4,30.21,WSW,254,3.0,6.0,86,0.00,,,0.00,Wunderground v.1.15,2013-03-25 14:44:00,
2013-03-25 09:45:00,25.1,21.8,30.21,NW,324,6.0,6.0,87,0.00,,,0.00,Wunderground v.1.15,2013-03-25 14:45:00,
2013-03-25 09:46:00,25.1,21.8,30.21,North,360,2.0,6.0,87,0.00,,,0.00,Wunderground v.1.15,2013-03-25 14:46:00,
2013-03-25 09:47:00,25.1,21.8,30.21,NNW,329,5.0,7.0,87,0.00,,,0.00,Wunderground v.1.15,2013-03-25 14:47:00,
2013-03-25 09:49:00,25.1,21.8,30.21,NNW,329,5.0,5.0,87,0.00,,,0.00,Wunderground v.1.15,2013-03-25 14:49:00,
2013-03-25 09:51:00,25.2,21.6,30.21,NNW,340,2.0,7.0,86,0.00,,,0.00,Wunderground v.1.15,2013-03-25 14:51:00,
2013-03-25 09:52:00,25.2,21.6,30.21,NW,325,5.0,7.0,86,0.00,,,0.00,Wunderground v.1.15,2013-03-25 14:52:00,
2013-03-25 09:55:00,25.2,21.6,30.21,NW,323,5.0,7.0,86,0.00,,,0.00,Wunderground v.1.15,2013-03-25 14:55:00,
2013-03-25 09:57:00,25.3,21.7,30.21,NW,315,3.0,7.0,86,0.00,,,0.00,Wunderground v.1.15,2013-03-25 14:57:00,
2013-03-25 10:00:00,25.4,21.8,30.21,NNW,333,5.0,7.0,86,0.00,,,0.00,Wunderground v.1.15,2013-03-25 15:00:00,
2013-03-25 10:02:00,25.4,21.8,30.21,NNW,341,4.0,7.0,86,0.00,,,0.00,Wunderground v.1.15,2013-03-25 15:02:00,
2013-03-25 10:05:00,25.5,21.9,30.21,NW,316,5.0,7.0,86,0.00,,,0.00,Wunderground v.1.15,2013-03-25 15:05:00,
2013-03-25 10:07:00,25.6,22.0,30.21,ENE,59,4.0,7.0,86,0.00,,,0.00,Wunderground v.1.15,2013-03-25 15:07:00,
2013-03-25 10:08:00,25.6,22.0,30.21,NW,323,3.0,7.0,86,0.00,,,0.00,Wunderground v.1.15,2013-03-25 15:08:00,
2013-03-25 10:10:00,25.6,22.0,30.21,NNW,327,5.0,7.0,86,0.00,,,0.00,Wunderground v.1.15,2013-03-25 15:10:00,
2013-03-25 10:13:00,25.7,22.1,30.22,NW,317,4.0,7.0,86,0.00,,,0.00,Wunderground v.1.15,2013-03-25 15:13:00,
2013-03-25 10:16:00,25.7,21.8,30.22,NNW,337,6.0,8.0,85,0.00,,,0.00,Wunderground v.1.15,2013-03-25 15:16:00,
2013-03-25 10:18:00,25.8,21.9,30.22,NNW,347,5.0,8.0,85,0.00,,,0.00,Wunderground v.1.15,2013-03-25 15:18:00,
2013-03-25 10:19:00,25.8,21.9,30.22,NNW,330,5.0,8.0,85,0.00,,,0.00,Wunderground v.1.15,2013-03-25 15:19:00,
2013-03-25 10:21:00,25.9,22.0,30.22,West,277,9.0,11.0,85,0.00,,,0.00,Wunderground v.1.15,2013-03-25 15:21:00,
2013-03-25 10:23:00,26.0,22.1,30.22,NNW,342,4.0,11.0,85,0.00,,,0.00,Wunderground v.1.15,2013-03-25 15:23:00,
2013-03-25 10:24:00,26.0,22.1,30.22,NNW,333,6.0,11.0,85,0.00,,,0.00,Wunderground v.1.15,2013-03-25 15:24:00,
2013-03-25 10:26:00,26.0,22.1,30.22,NW,317,3.0,11.0,85,0.00,,,0.00,Wunderground v.1.15,2013-03-25 15:26:00,
2013-03-25 10:28:00,26.1,22.2,30.22,NW,319,5.0,11.0,85,0.00,,,0.00,Wunderground v.1.15,2013-03-25 15:28:00,
2013-03-25 10:29:00,26.2,22.3,30.22,NNW,327,4.0,11.0,85,0.00,,,0.00,Wunderground v.1.15,2013-03-25 15:29:00,
2013-03-25 10:30:00,26.2,22.3,30.22,NW,325,6.0,6.0,85,0.00,,,0.00,Wunderground v.1.15,2013-03-25 15:30:00,
2013-03-25 10:31:00,26.3,22.4,30.22,NNW,337,0.0,6.0,85,0.00,,,0.00,Wunderground v.1.15,2013-03-25 15:31:00,
2013-03-25 10:33:00,26.4,22.5,30.23,NNW,336,5.0,6.0,85,0.00,,,0.00,Wunderground v.1.15,2013-03-25 15:33:00,
2013-03-25 10:35:00,26.4,22.5,30.22,NW,319,4.0,7.0,85,0.00,,,0.00,Wunderground v.1.15,2013-03-25 15:35:00,
2013-03-25 10:36:00,26.5,22.3,30.23,NNW,328,2.0,8.0,84,0.00,,,0.00,Wunderground v.1.15,2013-03-25 15:36:00,
2013-03-25 10:39:00,26.5,22.3,30.22,SE,142,5.0,8.0,84,0.00,,,0.00,Wunderground v.1.15,2013-03-25 15:39:00,
2013-03-25 10:40:00,26.5,22.0,30.22,NNW,336,7.0,8.0,83,0.00,,,0.00,Wunderground v.1.15,2013-03-25 15:40:00,
2013-03-25 10:42:00,26.5,22.0,30.23,NNW,328,6.0,8.0,83,0.00,,,0.00,Wunderground v.1.15,2013-03-25 15:42:00,
2013-03-25 10:44:00,26.6,22.7,30.23,NW,319,2.0,8.0,85,0.00,,,0.00,Wunderground v.1.15,2013-03-25 15:44:00,
2013-03-25 10:45:00,26.6,22.4,30.23,NW,307,4.0,8.0,84,0.00,,,0.00,Wunderground v.1.15,2013-03-25 15:45:00,
2013-03-25 10:47:00,26.7,22.5,30.23,NW,326,1.0,8.0,84,0.00,,,0.00,Wunderground v.1.15,2013-03-25 15:47:00,
2013-03-25 10:49:00,27.0,22.8,30.23,NW,306,4.0,4.0,84,0.00,,,0.00,Wunderground v.1.15,2013-03-25 15:49:00,
2013-03-25 10:52:00,27.0,22.5,30.23,NW,323,5.0,7.0,83,0.00,,,0.00,Wunderground v.1.15,2013-03-25 15:52:00,
2013-03-25 10:54:00,27.0,22.5,30.23,NW,320,4.0,8.0,83,0.00,,,0.00,Wunderground v.1.15,2013-03-25 15:54:00,
2013-03-25 10:57:00,27.0,22.5,30.23,NW,304,4.0,8.0,83,0.00,,,0.00,Wunderground v.1.15,2013-03-25 15:57:00,
2013-03-25 10:58:00,27.0,22.5,30.23,NW,325,4.0,8.0,83,0.00,,,0.00,Wunderground v.1.15,2013-03-25 15:58:00,
2013-03-25 11:01:00,27.2,22.7,30.23,NE,51,2.0,6.0,83,0.00,,,0.00,Wunderground v.1.15,2013-03-25 16:01:00,
2013-03-25 11:02:00,27.2,22.7,30.23,NNW,336,5.0,6.0,83,0.00,,,0.00,Wunderground v.1.15,2013-03-25 16:02:00,
2013-03-25 11:03:00,27.2,22.4,30.23,NNW,342,2.0,7.0,82,0.00,,,0.00,Wunderground v.1.15,2013-03-25 16:03:00,
2013-03-25 11:07:00,27.4,22.9,30.23,NNW,336,3.0,8.0,83,0.00,,,0.00,Wunderground v.1.15,2013-03-25 16:07:00,
2013-03-25 11:08:00,27.5,22.7,30.23,NNW,336,3.0,8.0,82,0.00,,,0.00,Wunderground v.1.15,2013-03-25 16:08:00,
2013-03-25 11:12:00,27.6,22.8,30.23,NNW,329,5.0,7.0,82,0.00,,,0.00,Wunderground v.1.15,2013-03-25 16:12:00,
2013-03-25 11:13:00,27.7,22.9,30.23,NNW,329,3.0,7.0,82,0.00,,,0.00,Wunderground v.1.15,2013-03-25 16:13:00,
2013-03-25 11:17:00,27.9,23.1,30.23,NNW,332,3.0,7.0,82,0.00,,,0.00,Wunderground v.1.15,2013-03-25 16:17:00,
2013-03-25 11:18:00,27.9,23.1,30.23,NNW,329,3.0,7.0,82,0.00,,,0.00,Wunderground v.1.15,2013-03-25 16:18:00,
2013-03-25 11:19:00,28.0,23.5,30.23,NNW,331,1.0,7.0,83,0.00,,,0.00,Wunderground v.1.15,2013-03-25 16:19:00,
2013-03-25 11:23:00,28.3,23.5,30.23,NNW,337,3.0,5.0,82,0.00,,,0.00,Wunderground v.1.15,2013-03-25 16:23:00,
2013-03-25 11:24:00,28.4,23.3,30.23,NW,317,4.0,5.0,81,0.00,,,0.01,Wunderground v.1.15,2013-03-25 16:24:00,
2013-03-25 11:25:00,28.4,23.3,30.23,NW,318,7.0,7.0,81,0.00,,,0.01,Wunderground v.1.15,2013-03-25 16:25:00,
2013-03-25 11:28:00,28.3,23.2,30.23,NNW,342,3.0,8.0,81,0.00,,,0.01,Wunderground v.1.15,2013-03-25 16:28:00,
2013-03-25 11:30:00,28.4,23.3,30.23,NNE,13,2.0,3.0,81,0.00,,,0.01,Wunderground v.1.15,2013-03-25 16:30:00,
2013-03-25 11:32:00,28.4,23.3,30.23,NNW,331,3.0,6.0,81,0.00,,,0.01,Wunderground v.1.15,2013-03-25 16:32:00,
2013-03-25 11:33:00,28.4,23.3,30.23,NW,307,5.0,7.0,81,0.00,,,0.01,Wunderground v.1.15,2013-03-25 16:33:00,
2013-03-25 11:35:00,28.3,22.9,30.23,ENE,72,3.0,7.0,80,0.00,,,0.01,Wunderground v.1.15,2013-03-25 16:35:00,
2013-03-25 11:36:00,28.3,22.9,30.23,NNW,330,6.0,7.0,80,0.00,,,0.01,Wunderground v.1.15,2013-03-25 16:36:00,
2013-03-25 11:37:00,28.2,22.8,30.23,NNW,333,2.0,7.0,80,0.00,,,0.01,Wunderground v.1.15,2013-03-25 16:37:00,
2013-03-25 11:38:00,28.3,23.2,30.23,NNW,327,4.0,7.0,81,0.00,,,0.01,Wunderground v.1.15,2013-03-25 16:38:00,
2013-03-25 11:40:00,28.3,23.2,30.23,NNW,336,6.0,6.0,81,0.00,,,0.01,Wunderground v.1.15,2013-03-25 16:40:00,
2013-03-25 11:41:00,28.3,23.2,30.24,NW,315,3.0,9.0,81,0.00,,,0.01,Wunderground v.1.15,2013-03-25 16:41:00,
2013-03-25 11:43:00,28.4,23.3,30.23,NW,321,3.0,9.0,81,0.00,,,0.01,Wunderground v.1.15,2013-03-25 16:43:00,
2013-03-25 11:45:00,28.4,23.6,30.23,NNW,344,5.0,9.0,82,0.00,,,0.01,Wunderground v.1.15,2013-03-25 16:45:00,
2013-03-25 11:46:00,28.5,23.4,30.23,NW,325,5.0,9.0,81,0.00,,,0.01,Wunderground v.1.15,2013-03-25 16:46:00,
2013-03-25 11:47:00,28.6,23.5,30.23,NNW,333,6.0,9.0,81,0.00,,,0.01,Wunderground v.1.15,2013-03-25 16:47:00,
2013-03-25 11:50:00,28.6,23.2,30.24,NW,318,7.0,7.0,80,0.00,,,0.01,Wunderground v.1.15,2013-03-25 16:50:00,
2013-03-25 11:51:00,28.6,23.2,30.24,NNW,332,2.0,7.0,80,0.00,,,0.01,Wunderground v.1.15,2013-03-25 16:51:00,
2013-03-25 11:52:00,28.7,23.6,30.23,NNW,341,4.0,7.0,81,0.00,,,0.01,Wunderground v.1.15,2013-03-25 16:52:00,
2013-03-25 11:56:00,28.8,23.4,30.24,WNW,303,1.0,7.0,80,0.00,,,0.01,Wunderground v.1.15,2013-03-25 16:56:00,
2013-03-25 11:59:00,28.7,23.6,30.24,NNW,331,6.0,9.0,81,0.00,,,0.01,Wunderground v.1.15,2013-03-25 16:59:00,
2013-03-25 12:00:00,28.6,22.9,30.24,NW,311,4.0,8.0,79,0.00,,,0.01,Wunderground v.1.15,2013-03-25 17:00:00,
2013-03-25 12:01:00,28.5,23.1,30.24,NNW,336,3.0,8.0,80,0.00,,,0.01,Wunderground v.1.15,2013-03-25 17:01:00,
2013-03-25 12:02:00,28.5,23.1,30.24,NNW,331,3.0,8.0,80,0.00,,,0.01,Wunderground v.1.15,2013-03-25 17:02:00,
2013-03-25 12:04:00,28.7,23.6,30.24,NNW,332,5.0,8.0,81,0.00,,,0.01,Wunderground v.1.15,2013-03-25 17:04:00,
2013-03-25 12:06:00,28.7,23.6,30.24,NW,313,3.0,8.0,81,0.00,,,0.01,Wunderground v.1.15,2013-03-25 17:06:00,
2013-03-25 12:07:00,28.7,23.6,30.24,NW,315,5.0,8.0,81,0.00,,,0.01,Wunderground v.1.15,2013-03-25 17:07:00,
2013-03-25 12:09:00,28.8,24.0,30.24,NNW,338,4.0,7.0,82,0.00,,,0.01,Wunderground v.1.15,2013-03-25 17:09:00,
2013-03-25 12:12:00,28.8,23.7,30.24,NW,309,6.0,7.0,81,0.00,,,0.01,Wunderground v.1.15,2013-03-25 17:12:00,
2013-03-25 12:13:00,28.8,23.4,30.24,NW,320,4.0,7.0,80,0.00,,,0.01,Wunderground v.1.15,2013-03-25 17:13:00,
2013-03-25 12:15:00,28.8,23.7,30.24,NW,324,3.0,7.0,81,0.00,,,0.01,Wunderground v.1.15,2013-03-25 17:15:00,
2013-03-25 12:17:00,28.9,23.8,30.24,NW,321,4.0,7.0,81,0.00,,,0.01,Wunderground v.1.15,2013-03-25 17:17:00,
2013-03-25 12:18:00,28.9,23.8,30.23,NW,323,5.0,7.0,81,0.00,,,0.01,Wunderground v.1.15,2013-03-25 17:18:00,
2013-03-25 12:20:00,28.9,23.5,30.24,NW,319,4.0,8.0,80,0.00,,,0.01,Wunderground v.1.15,2013-03-25 17:20:00,
2013-03-25 12:23:00,28.9,23.5,30.23,NW,313,3.0,8.0,80,0.00,,,0.01,Wunderground v.1.15,2013-03-25 17:23:00,
2013-03-25 12:24:00,28.9,23.5,30.23,NNW,333,3.0,8.0,80,0.00,,,0.01,Wunderground v.1.15,2013-03-25 17:24:00,
2013-03-25 12:25:00,29.0,23.9,30.23,WNW,300,4.0,8.0,81,0.00,,,0.01,Wunderground v.1.15,2013-03-25 17:25:00,
2013-03-25 12:29:00,29.2,23.8,30.23,NW,322,4.0,8.0,80,0.00,,,0.01,Wunderground v.1.15,2013-03-25 17:29:00,
2013-03-25 12:31:00,29.2,23.5,30.23,NW,319,5.0,6.0,79,0.00,,,0.01,Wunderground v.1.15,2013-03-25 17:31:00,
2013-03-25 12:33:00,29.2,23.5,30.23,NNW,327,0.0,7.0,79,0.00,,,0.01,Wunderground v.1.15,2013-03-25 17:33:00,
2013-03-25 12:34:00,29.3,23.9,30.23,NW,315,4.0,7.0,80,0.00,,,0.01,Wunderground v.1.15,2013-03-25 17:34:00,
2013-03-25 12:38:00,29.5,24.1,30.23,NW,322,2.0,7.0,80,0.00,,,0.01,Wunderground v.1.15,2013-03-25 17:38:00,
2013-03-25 12:39:00,29.6,24.2,30.23,NW,317,5.0,6.0,80,0.00,,,0.01,Wunderground v.1.15,2013-03-25 17:39:00,
2013-03-25 12:40:00,29.6,24.2,30.23,NW,315,2.0,8.0,80,0.00,,,0.01,Wunderground v.1.15,2013-03-25 17:40:00,
2013-03-25 12:43:00,29.8,24.7,30.23,NNW,334,5.0,8.0,81,0.00,,,0.01,Wunderground v.1.15,2013-03-25 17:43:00,
2013-03-25 12:45:00,30.0,24.9,30.23,NW,317,2.0,8.0,81,0.00,,,0.01,Wunderground v.1.15,2013-03-25 17:45:00,
2013-03-25 12:48:00,30.2,24.5,30.23,NNW,339,3.0,10.0,79,0.00,,,0.01,Wunderground v.1.15,2013-03-25 17:48:00,
2013-03-25 12:50:00,30.2,24.2,30.23,NW,325,4.0,6.0,78,0.00,,,0.01,Wunderground v.1.15,2013-03-25 17:50:00,
2013-03-25 12:51:00,30.2,24.5,30.23,NW,324,3.0,6.0,79,0.00,,,0.01,Wunderground v.1.15,2013-03-25 17:51:00,
2013-03-25 12:53:00,30.3,24.6,30.24,NNW,333,4.0,7.0,79,0.00,,,0.01,Wunderground v.1.15,2013-03-25 17:53:00,
2013-03-25 12:54:00,30.3,24.6,30.24,NNW,333,2.0,7.0,79,0.00,,,0.01,Wunderground v.1.15,2013-03-25 17:54:00,
2013-03-25 12:56:00,30.3,24.6,30.23,NW,316,6.0,11.0,79,0.00,,,0.01,Wunderground v.1.15,2013-03-25 17:56:00,
2013-03-25 12:57:00,30.4,24.1,30.23,NNW,329,4.0,11.0,77,0.00,,,0.01,Wunderground v.1.15,2013-03-25 17:57:00,
2013-03-25 12:58:00,30.5,24.5,30.23,NW,323,4.0,11.0,78,0.00,,,0.01,Wunderground v.1.15,2013-03-25 17:58:00,
2013-03-25 13:00:00,30.8,25.7,30.24,NNW,336,2.0,4.0,81,0.00,,,0.01,Wunderground v.1.15,2013-03-25 18:00:00,
2013-03-25 13:01:00,30.8,25.7,30.24,NNW,336,0.0,4.0,81,0.00,,,0.01,Wunderground v.1.15,2013-03-25 18:01:00,
2013-03-25 13:02:00,31.1,26.0,30.23,NW,313,4.0,6.0,81,0.00,,,0.01,Wunderground v.1.15,2013-03-25 18:02:00,
2013-03-25 13:04:00,31.2,25.1,30.23,North,360,4.0,6.0,78,0.00,,,0.01,Wunderground v.1.15,2013-03-25 18:04:00,
2013-03-25 13:07:00,31.5,25.4,30.23,North,355,2.0,6.0,78,0.00,,,0.01,Wunderground v.1.15,2013-03-25 18:07:00,
2013-03-25 13:08:00,31.5,25.4,30.23,NNE,25,6.0,9.0,78,0.00,,,0.01,Wunderground v.1.15,2013-03-25 18:08:00,
2013-03-25 13:10:00,31.4,25.3,30.23,NNW,338,7.0,7.0,78,0.00,,,0.01,Wunderground v.1.15,2013-03-25 18:10:00,
2013-03-25 13:12:00,31.2,24.8,30.23,NW,309,3.0,7.0,77,0.00,,,0.01,Wunderground v.1.15,2013-03-25 18:12:00,
2013-03-25 13:13:00,31.2,24.8,30.23,NNW,334,1.0,7.0,77,0.00,,,0.01,Wunderground v.1.15,2013-03-25 18:13:00,
2013-03-25 13:15:00,31.2,24.8,30.23,NW,319,4.0,10.0,77,0.00,,,0.01,Wunderground v.1.15,2013-03-25 18:15:00,
2013-03-25 13:18:00,31.5,26.0,30.24,NNW,327,6.0,10.0,80,0.00,,,0.01,Wunderground v.1.15,2013-03-25 18:18:00,
2013-03-25 13:20:00,31.6,25.5,30.23,NW,325,4.0,7.0,78,0.00,,,0.01,Wunderground v.1.15,2013-03-25 18:20:00,
2013-03-25 13:23:00,31.5,24.8,30.23,NW,314,4.0,7.0,76,0.00,,,0.01,Wunderground v.1.15,2013-03-25 18:23:00,
2013-03-25 13:24:00,31.5,24.8,30.23,NW,321,6.0,8.0,76,0.00,,,0.01,Wunderground v.1.15,2013-03-25 18:24:00,
2013-03-25 13:25:00,31.4,24.7,30.24,NNW,338,3.0,8.0,76,0.00,,,0.01,Wunderground v.1.15,2013-03-25 18:25:00,
2013-03-25 13:28:00,31.3,24.9,30.23,WNW,292,2.0,8.0,77,0.00,,,0.01,Wunderground v.1.15,2013-03-25 18:28:00,
2013-03-25 13:29:00,31.3,24.9,30.23,NNW,329,5.0,8.0,77,0.00,,,0.01,Wunderground v.1.15,2013-03-25 18:29:00,
2013-03-25 13:30:00,31.4,25.6,30.23,NW,320,2.0,5.0,79,0.00,,,0.01,Wunderground v.1.15,2013-03-25 18:30:00,
2013-03-25 13:33:00,31.9,26.1,30.23,WNW,300,3.0,6.0,79,0.00,,,0.01,Wunderground v.1.15,2013-03-25 18:33:00,
2013-03-25 13:34:00,31.9,26.1,30.23,NNW,341,4.0,6.0,79,0.00,,,0.01,Wunderground v.1.15,2013-03-25 18:34:00,
2013-03-25 13:35:00,32.1,25.7,30.23,NW,317,0.0,9.0,77,0.00,,,0.01,Wunderground v.1.15,2013-03-25 18:35:00,
2013-03-25 13:37:00,32.1,25.7,30.23,NNW,327,7.0,9.0,77,0.00,,,0.01,Wunderground v.1.15,2013-03-25 18:37:00,
2013-03-25 13:40:00,32.0,25.6,30.23,NNW,333,4.0,7.0,77,0.00,,,0.01,Wunderground v.1.15,2013-03-25 18:40:00,
2013-03-25 13:41:00,32.1,25.7,30.23,North,9,2.0,9.0,77,0.00,,,0.01,Wunderground v.1.15,2013-03-25 18:41:00,
2013-03-25 13:42:00,32.1,25.7,30.23,North,355,3.0,9.0,77,0.00,,,0.01,Wunderground v.1.15,2013-03-25 18:42:00,
2013-03-25 13:45:00,32.4,26.3,30.23,NW,323,6.0,9.0,78,0.00,,,0.02,Wunderground v.1.15,2013-03-25 18:45:00,
2013-03-25 13:46:00,32.5,25.8,30.23,NW,311,6.0,9.0,76,0.00,,,0.02,Wunderground v.1.15,2013-03-25 18:46:00,
2013-03-25 13:47:00,32.4,25.4,30.23,NW,325,4.0,9.0,75,0.00,,,0.02,Wunderground v.1.15,2013-03-25 18:47:00,
2013-03-25 13:50:00,32.5,25.8,30.23,NW,321,4.0,7.0,76,0.00,,,0.02,Wunderground v.1.15,2013-03-25 18:50:00,
2013-03-25 13:52:00,32.5,25.8,30.23,NW,321,2.0,8.0,76,0.00,,,0.02,Wunderground v.1.15,2013-03-25 18:52:00,
2013-03-25 13:55:00,32.6,25.9,30.23,NNW,336,4.0,9.0,76,0.00,,,0.02,Wunderground v.1.15,2013-03-25 18:55:00,
2013-03-25 13:57:00,32.6,26.2,30.23,WNW,302,1.0,9.0,77,0.00,,,0.02,Wunderground v.1.15,2013-03-25 18:57:00,
2013-03-25 13:58:00,32.8,26.1,30.23,NNW,345,6.0,9.0,76,0.00,,,0.02,Wunderground v.1.15,2013-03-25 18:58:00,
2013-03-25 14:02:00,32.9,26.5,30.23,NNW,337,1.0,7.0,77,0.00,,,0.02,Wunderground v.1.15,2013-03-25 19:02:00,
2013-03-25 14:03:00,33.0,26.9,30.23,NNW,337,3.0,7.0,78,0.00,,,0.02,Wunderground v.1.15,2013-03-25 19:03:00,
2013-03-25 14:04:00,33.0,26.6,30.23,NW,316,4.0,7.0,77,0.00,,,0.02,Wunderground v.1.15,2013-03-25 19:04:00,
2013-03-25 14:08:00,33.3,26.9,30.23,NW,315,3.0,7.0,77,0.00,,,0.02,Wunderground v.1.15,2013-03-25 19:08:00,
2013-03-25 14:09:00,33.2,26.1,30.23,NNW,335,4.0,4.0,75,0.00,,,0.02,Wunderground v.1.15,2013-03-25 19:09:00,
2013-03-25 14:10:00,33.2,26.1,30.23,NNW,332,3.0,5.0,75,0.00,,,0.02,Wunderground v.1.15,2013-03-25 19:10:00,
2013-03-25 14:13:00,33.0,26.3,30.23,NNW,335,4.0,8.0,76,0.00,,,0.02,Wunderground v.1.15,2013-03-25 19:13:00,
2013-03-25 14:15:00,33.0,26.3,30.23,NNW,329,4.0,8.0,76,0.00,,,0.02,Wunderground v.1.15,2013-03-25 19:15:00,
2013-03-25 14:18:00,33.2,26.1,30.23,SSE,153,5.0,8.0,75,0.00,,,0.02,Wunderground v.1.15,2013-03-25 19:18:00,
2013-03-25 14:19:00,33.2,26.1,30.23,NW,321,6.0,8.0,75,0.00,,,0.02,Wunderground v.1.15,2013-03-25 19:19:00,
2013-03-25 14:20:00,33.2,26.1,30.23,NNW,338,8.0,8.0,75,0.00,,,0.02,Wunderground v.1.15,2013-03-25 19:20:00,
2013-03-25 14:23:00,33.2,26.1,30.23,NW,321,6.0,8.0,75,0.00,,,0.02,Wunderground v.1.15,2013-03-25 19:23:00,
2013-03-25 14:24:00,33.1,25.7,30.23,NNW,343,7.0,8.0,74,0.00,,,0.02,Wunderground v.1.15,2013-03-25 19:24:00,
2013-03-25 14:25:00,33.0,25.6,30.23,NW,325,7.0,8.0,74,0.00,,,0.02,Wunderground v.1.15,2013-03-25 19:25:00,
2013-03-25 14:26:00,33.0,25.6,30.23,NW,305,2.0,8.0,74,0.00,,,0.02,Wunderground v.1.15,2013-03-25 19:26:00,
2013-03-25 14:29:00,33.1,27.0,30.23,NW,324,8.0,8.0,78,0.00,,,0.02,Wunderground v.1.15,2013-03-25 19:29:00,
2013-03-25 14:31:00,33.1,25.7,30.23,WNW,285,3.0,8.0,74,0.00,,,0.02,Wunderground v.1.15,2013-03-25 19:31:00,
2013-03-25 14:34:00,33.3,26.5,30.23,NW,319,6.0,8.0,76,0.00,,,0.02,Wunderground v.1.15,2013-03-25 19:34:00,
2013-03-25 14:36:00,33.3,25.9,30.23,NNW,336,7.0,8.0,74,0.00,,,0.02,Wunderground v.1.15,2013-03-25 19:36:00,
2013-03-25 14:37:00,33.2,25.8,30.23,NW,313,5.0,10.0,74,0.00,,,0.02,Wunderground v.1.15,2013-03-25 19:37:00,
2013-03-25 14:40:00,33.4,26.6,30.23,NW,313,9.0,9.0,76,0.00,,,0.02,Wunderground v.1.15,2013-03-25 19:40:00,
2013-03-25 14:41:00,33.5,26.7,30.23,NE,53,2.0,9.0,76,0.00,,,0.02,Wunderground v.1.15,2013-03-25 19:41:00,
2013-03-25 14:42:00,33.5,27.1,30.23,NW,313,4.0,9.0,77,0.00,,,0.02,Wunderground v.1.15,2013-03-25 19:42:00,
2013-03-25 14:45:00,33.5,25.4,30.23,NNW,329,1.0,9.0,72,0.00,,,0.02,Wunderground v.1.15,2013-03-25 19:45:00,
2013-03-25 14:46:00,33.4,25.3,30.23,NW,315,6.0,9.0,72,0.00,,,0.02,Wunderground v.1.15,2013-03-25 19:46:00,
2013-03-25 14:48:00,33.3,25.9,30.23,NW,325,3.0,9.0,74,0.00,,,0.02,Wunderground v.1.15,2013-03-25 19:48:00,
2013-03-25 14:50:00,33.2,25.5,30.23,NW,309,6.0,8.0,73,0.00,,,0.02,Wunderground v.1.15,2013-03-25 19:50:00,
2013-03-25 14:52:00,33.3,25.9,30.23,NNW,334,6.0,8.0,74,0.00,,,0.02,Wunderground v.1.15,2013-03-25 19:52:00,
2013-03-25 14:53:00,33.3,25.9,30.23,NE,35,5.0,8.0,74,0.00,,,0.02,Wunderground v.1.15,2013-03-25 19:53:00,
2013-03-25 14:55:00,33.5,26.4,30.23,NNW,334,4.0,8.0,75,0.00,,,0.02,Wunderground v.1.15,2013-03-25 19:55:00,
2013-03-25 14:57:00,33.5,25.8,30.23,NNW,331,4.0,8.0,73,0.00,,,0.02,Wunderground v.1.15,2013-03-25 19:57:00,
2013-03-25 14:58:00,33.5,25.1,30.23,NE,40,0.0,8.0,71,0.00,,,0.02,Wunderground v.1.15,2013-03-25 19:58:00,
2013-03-25 14:59:00,33.5,26.1,30.23,NNW,346,2.0,8.0,74,0.00,,,0.02,Wunderground v.1.15,2013-03-25 19:59:00,
2013-03-25 15:01:00,33.4,26.0,30.23,NNW,336,2.0,6.0,74,0.00,,,0.02,Wunderground v.1.15,2013-03-25 20:01:00,
2013-03-25 15:02:00,33.4,26.0,30.23,WNW,298,4.0,6.0,74,0.00,,,0.02,Wunderground v.1.15,2013-03-25 20:02:00,
2013-03-25 15:04:00,33.4,26.3,30.23,NW,306,3.0,6.0,75,0.00,,,0.02,Wunderground v.1.15,2013-03-25 20:04:00,
2013-03-25 15:07:00,33.2,24.5,30.23,NNW,333,2.0,7.0,70,0.00,,,0.02,Wunderground v.1.15,2013-03-25 20:07:00,
2013-03-25 15:09:00,33.3,25.2,30.23,North,5,3.0,7.0,72,0.00,,,0.02,Wunderground v.1.15,2013-03-25 20:09:00,
2013-03-25 15:12:00,33.3,25.6,30.23,NE,39,5.0,7.0,73,0.00,,,0.02,Wunderground v.1.15,2013-03-25 20:12:00,
2013-03-25 15:14:00,33.3,25.2,30.23,WNW,298,3.0,7.0,72,0.00,,,0.02,Wunderground v.1.15,2013-03-25 20:14:00,
2013-03-25 15:15:00,33.3,25.2,30.23,NNW,343,6.0,7.0,72,0.00,,,0.02,Wunderground v.1.15,2013-03-25 20:15:00,
2013-03-25 15:17:00,33.4,25.3,30.23,NW,324,3.0,7.0,72,0.00,,,0.02,Wunderground v.1.15,2013-03-25 20:17:00,
2013-03-25 15:18:00,33.4,25.3,30.23,NNW,332,4.0,7.0,72,0.00,,,0.02,Wunderground v.1.15,2013-03-25 20:18:00,
2013-03-25 15:19:00,33.4,25.3,30.23,NNW,333,5.0,7.0,72,0.00,,,0.02,Wunderground v.1.15,2013-03-25 20:19:00,
2013-03-25 15:20:00,33.4,25.7,30.23,NNW,328,3.0,5.0,73,0.00,,,0.02,Wunderground v.1.15,2013-03-25 20:20:00,
2013-03-25 15:23:00,33.3,24.9,30.23,NNE,12,2.0,7.0,71,0.00,,,0.02,Wunderground v.1.15,2013-03-25 20:23:00,
2013-03-25 15:24:00,33.3,25.2,30.23,NNW,337,1.0,7.0,72,0.00,,,0.02,Wunderground v.1.15,2013-03-25 20:24:00,
2013-03-25 15:26:00,33.3,25.2,30.23,NW,321,3.0,7.0,72,0.00,,,0.02,Wunderground v.1.15,2013-03-25 20:26:00,
2013-03-25 15:28:00,33.4,26.0,30.23,NW,309,5.0,8.0,74,0.00,,,0.02,Wunderground v.1.15,2013-03-25 20:28:00,
2013-03-25 15:29:00,33.4,25.0,30.23,NNW,338,6.0,6.0,71,0.00,,,0.02,Wunderground v.1.15,2013-03-25 20:29:00,
2013-03-25 15:31:00,33.3,25.6,30.23,NW,319,5.0,7.0,73,0.00,,,0.02,Wunderground v.1.15,2013-03-25 20:31:00,
2013-03-25 15:33:00,33.3,23.9,30.23,NNW,331,1.0,8.0,68,0.00,,,0.02,Wunderground v.1.15,2013-03-25 20:33:00,
2013-03-25 15:34:00,33.2,23.8,30.23,SSW,201,2.0,8.0,68,0.00,,,0.02,Wunderground v.1.15,2013-03-25 20:34:00,
2013-03-25 15:37:00,33.1,24.4,30.23,NNW,339,7.0,8.0,70,0.00,,,0.02,Wunderground v.1.15,2013-03-25 20:37:00,
2013-03-25 15:38:00,33.3,24.9,30.23,West,281,3.0,8.0,71,0.00,,,0.02,Wunderground v.1.15,2013-03-25 20:38:00,
2013-03-25 15:40:00,33.4,24.3,30.23,NW,306,5.0,5.0,69,0.00,,,0.02,Wunderground v.1.15,2013-03-25 20:40:00,
2013-03-25 15:42:00,33.6,24.5,30.23,NNW,328,4.0,5.0,69,0.00,,,0.02,Wunderground v.1.15,2013-03-25 20:42:00,
2013-03-25 15:43:00,33.7,25.0,30.23,NNE,23,4.0,7.0,70,0.00,,,0.02,Wunderground v.1.15,2013-03-25 20:43:00,
2013-03-25 15:44:00,33.8,25.0,30.23,NW,306,5.0,7.0,70,0.00,,,0.02,Wunderground v.1.15,2013-03-25 20:44:00,
2013-03-25 15:45:00,33.8,24.7,30.23,NNW,341,1.0,7.0,69,0.00,,,0.02,Wunderground v.1.15,2013-03-25 20:45:00,
2013-03-25 15:47:00,33.9,25.8,30.23,NNW,329,5.0,7.0,72,0.00,,,0.02,Wunderground v.1.15,2013-03-25 20:47:00,
2013-03-25 15:48:00,34.1,26.3,30.23,NE,51,3.0,7.0,73,0.00,,,0.02,Wunderground v.1.15,2013-03-25 20:48:00,
2013-03-25 15:49:00,34.2,26.1,30.23,NW,317,3.0,5.0,72,0.00,,,0.02,Wunderground v.1.15,2013-03-25 20:49:00,
2013-03-25 15:50:00,34.2,25.8,30.23,NNW,329,4.0,8.0,71,0.00,,,0.02,Wunderground v.1.15,2013-03-25 20:50:00,
2013-03-25 15:52:00,34.1,25.0,30.23,NW,326,5.0,8.0,69,0.00,,,0.02,Wunderground v.1.15,2013-03-25 20:52:00,
2013-03-25 15:54:00,33.9,25.1,30.23,NW,304,4.0,9.0,70,0.00,,,0.02,Wunderground v.1.15,2013-03-25 20:54:00,
2013-03-25 15:55:00,33.9,24.8,30.23,NNW,342,3.0,9.0,69,0.00,,,0.02,Wunderground v.1.15,2013-03-25 20:55:00,
2013-03-25 15:57:00,33.9,25.1,30.23,NW,319,3.0,9.0,70,0.00,,,0.02,Wunderground v.1.15,2013-03-25 20:57:00,
2013-03-25 15:59:00,34.1,26.0,30.23,NNW,333,5.0,5.0,72,0.00,,,0.02,Wunderground v.1.15,2013-03-25 20:59:00,
2013-03-25 16:01:00,34.2,26.1,30.23,NW,319,0.0,5.0,72,0.00,,,0.02,Wunderground v.1.15,2013-03-25 21:01:00,
2013-03-25 16:03:00,34.1,25.7,30.23,NW,319,5.0,6.0,71,0.00,,,0.02,Wunderground v.1.15,2013-03-25 21:03:00,
2013-03-25 16:05:00,33.9,24.4,30.23,NW,319,1.0,8.0,68,0.00,,,0.02,Wunderground v.1.15,2013-03-25 21:05:00,
2013-03-25 16:06:00,33.8,24.7,30.23,NNW,327,4.0,8.0,69,0.00,,,0.02,Wunderground v.1.15,2013-03-25 21:06:00,
2013-03-25 16:07:00,33.7,24.6,30.23,NW,317,6.0,8.0,69,0.00,,,0.02,Wunderground v.1.15,2013-03-25 21:07:00,
2013-03-25 16:08:00,33.5,24.1,30.23,NW,321,3.0,8.0,68,0.00,,,0.02,Wunderground v.1.15,2013-03-25 21:08:00,
2013-03-25 16:10:00,33.6,25.9,30.23,NNW,336,3.0,5.0,73,0.00,,,0.02,Wunderground v.1.15,2013-03-25 21:10:00,
2013-03-25 16:12:00,33.6,24.9,30.23,NNW,328,6.0,8.0,70,0.00,,,0.02,Wunderground v.1.15,2013-03-25 21:12:00,
2013-03-25 16:13:00,33.6,24.9,30.23,NW,325,5.0,8.0,70,0.00,,,0.02,Wunderground v.1.15,2013-03-25 21:13:00,
2013-03-25 16:16:00,33.3,25.2,30.23,NW,318,3.0,8.0,72,0.00,,,0.02,Wunderground v.1.15,2013-03-25 21:16:00,
2013-03-25 16:18:00,33.2,25.1,30.23,WNW,296,4.0,8.0,72,0.00,,,0.02,Wunderground v.1.15,2013-03-25 21:18:00,
2013-03-25 16:21:00,33.2,25.5,30.23,NW,311,0.0,4.0,73,0.00,,,0.02,Wunderground v.1.15,2013-03-25 21:21:00,
2013-03-25 16:23:00,33.2,25.1,30.23,NW,315,4.0,6.0,72,0.00,,,0.02,Wunderground v.1.15,2013-03-25 21:23:00,
2013-03-25 16:26:00,33.0,24.6,30.23,NNW,335,5.0,7.0,71,0.00,,,0.02,Wunderground v.1.15,2013-03-25 21:26:00,
2013-03-25 16:28:00,33.0,24.6,30.23,WNW,296,3.0,7.0,71,0.00,,,0.02,Wunderground v.1.15,2013-03-25 21:28:00,
2013-03-25 16:29:00,33.1,25.1,30.23,WNW,294,1.0,7.0,72,0.00,,,0.02,Wunderground v.1.15,2013-03-25 21:29:00,
2013-03-25 16:32:00,33.2,24.8,30.23,WNW,294,4.0,7.0,71,0.00,,,0.02,Wunderground v.1.15,2013-03-25 21:32:00,
2013-03-25 16:33:00,33.1,24.0,30.23,North,355,5.0,7.0,69,0.00,,,0.02,Wunderground v.1.15,2013-03-25 21:33:00,
2013-03-25 16:34:00,33.1,24.4,30.23,North,9,2.0,7.0,70,0.00,,,0.02,Wunderground v.1.15,2013-03-25 21:34:00,
2013-03-25 16:37:00,33.2,24.8,30.23,NNW,339,2.0,9.0,71,0.00,,,0.02,Wunderground v.1.15,2013-03-25 21:37:00,
2013-03-25 16:39:00,33.3,24.9,30.23,NW,311,2.0,9.0,71,0.00,,,0.02,Wunderground v.1.15,2013-03-25 21:39:00,
2013-03-25 16:42:00,33.4,24.3,30.23,NNW,347,3.0,8.0,69,0.00,,,0.02,Wunderground v.1.15,2013-03-25 21:42:00,
2013-03-25 16:44:00,33.2,23.8,30.24,NW,319,3.0,8.0,68,0.00,,,0.02,Wunderground v.1.15,2013-03-25 21:44:00,
2013-03-25 16:45:00,33.2,23.8,30.24,NW,319,4.0,8.0,68,0.00,,,0.02,Wunderground v.1.15,2013-03-25 21:45:00,
2013-03-25 16:48:00,32.7,23.3,30.24,NW,321,3.0,8.0,68,0.00,,,0.02,Wunderground v.1.15,2013-03-25 21:48:00,
2013-03-25 16:49:00,32.6,23.6,30.24,NW,323,5.0,5.0,69,0.00,,,0.02,Wunderground v.1.15,2013-03-25 21:49:00,
2013-03-25 16:50:00,32.5,23.5,30.24,NW,325,2.0,5.0,69,0.00,,,0.02,Wunderground v.1.15,2013-03-25 21:50:00,
2013-03-25 16:53:00,32.5,23.8,30.24,NNW,331,3.0,6.0,70,0.00,,,0.02,Wunderground v.1.15,2013-03-25 21:53:00,
2013-03-25 16:54:00,32.6,24.2,30.24,NW,317,3.0,6.0,71,0.00,,,0.02,Wunderground v.1.15,2013-03-25 21:54:00,
2013-03-25 16:55:00,32.6,24.2,30.24,NW,321,3.0,7.0,71,0.00,,,0.02,Wunderground v.1.15,2013-03-25 21:55:00,
2013-03-25 16:58:00,32.8,24.4,30.24,NW,318,4.0,8.0,71,0.00,,,0.02,Wunderground v.1.15,2013-03-25 21:58:00,
2013-03-25 17:00:00,32.8,24.1,30.24,NNW,337,2.0,5.0,70,0.00,,,0.02,Wunderground v.1.15,2013-03-25 22:00:00,
2013-03-25 17:03:00,32.6,23.9,30.24,NNW,337,8.0,8.0,70,0.00,,,0.02,Wunderground v.1.15,2013-03-25 22:03:00,
2013-03-25 17:05:00,32.5,23.1,30.24,NNW,338,3.0,8.0,68,0.00,,,0.02,Wunderground v.1.15,2013-03-25 22:05:00,
2013-03-25 17:08:00,32.1,23.1,30.24,NNW,334,4.0,8.0,69,0.00,,,0.02,Wunderground v.1.15,2013-03-25 22:08:00,
2013-03-25 17:10:00,32.1,24.1,30.24,NW,321,4.0,7.0,72,0.00,,,0.02,Wunderground v.1.15,2013-03-25 22:10:00,
2013-03-25 17:11:00,32.1,24.1,30.24,NNW,329,6.0,7.0,72,0.00,,,0.02,Wunderground v.1.15,2013-03-25 22:11:00,
2013-03-25 17:14:00,32.2,24.5,30.24,NW,319,5.0,8.0,73,0.00,,,0.02,Wunderground v.1.15,2013-03-25 22:14:00,
2013-03-25 17:15:00,32.3,24.3,30.24,NW,317,2.0,8.0,72,0.00,,,0.02,Wunderground v.1.15,2013-03-25 22:15:00,
2013-03-25 17:17:00,32.2,24.2,30.24,NW,310,2.0,8.0,72,0.00,,,0.02,Wunderground v.1.15,2013-03-25 22:17:00,
2013-03-25 17:19:00,32.1,24.1,30.24,NW,304,3.0,5.0,72,0.00,,,0.02,Wunderground v.1.15,2013-03-25 22:19:00,
2013-03-25 17:20:00,32.1,24.1,30.24,NW,322,3.0,7.0,72,0.00,,,0.02,Wunderground v.1.15,2013-03-25 22:20:00,
2013-03-25 17:24:00,32.1,24.4,30.24,NW,323,4.0,7.0,73,0.00,,,0.02,Wunderground v.1.15,2013-03-25 22:24:00,
2013-03-25 17:25:00,32.2,24.5,30.24,NNW,331,2.0,7.0,73,0.00,,,0.02,Wunderground v.1.15,2013-03-25 22:25:00,
2013-03-25 17:30:00,32.0,24.3,30.24,NW,324,2.0,4.0,73,0.00,,,0.02,Wunderground v.1.15,2013-03-25 22:30:00,
2013-03-25 17:35:00,31.5,23.8,30.25,NW,317,3.0,7.0,73,0.00,,,0.02,Wunderground v.1.15,2013-03-25 22:35:00,
2013-03-25 17:36:00,31.4,23.7,30.25,NW,326,4.0,7.0,73,0.00,,,0.02,Wunderground v.1.15,2013-03-25 22:36:00,
2013-03-25 17:40:00,31.4,24.4,30.25,NW,317,4.0,8.0,75,0.00,,,0.02,Wunderground v.1.15,2013-03-25 22:40:00,
2013-03-25 17:41:00,31.4,24.4,30.25,NW,317,3.0,8.0,75,0.00,,,0.02,Wunderground v.1.15,2013-03-25 22:41:00,
2013-03-25 17:42:00,31.5,24.2,30.24,NW,317,1.0,8.0,74,0.00,,,0.02,Wunderground v.1.15,2013-03-25 22:42:00,
2013-03-25 17:46:00,31.7,24.0,30.25,NW,325,3.0,8.0,73,0.00,,,0.02,Wunderground v.1.15,2013-03-25 22:46:00,
2013-03-25 17:47:00,31.7,24.0,30.25,NW,309,3.0,8.0,73,0.00,,,0.02,Wunderground v.1.15,2013-03-25 22:47:00,
2013-03-25 17:51:00,31.7,24.0,30.25,NNW,327,2.0,8.0,73,0.00,,,0.02,Wunderground v.1.15,2013-03-25 22:51:00,
2013-03-25 17:52:00,31.7,24.0,30.25,NNW,327,5.0,8.0,73,0.00,,,0.02,Wunderground v.1.15,2013-03-25 22:52:00,
2013-03-25 17:57:00,31.4,24.4,30.25,NNW,340,5.0,8.0,75,0.00,,,0.02,Wunderground v.1.15,2013-03-25 22:57:00,
2013-03-25 18:02:00,31.0,24.0,30.25,West,264,2.0,6.0,75,0.00,,,0.02,Wunderground v.1.15,2013-03-25 23:02:00,
2013-03-25 18:03:00,31.0,24.3,30.25,NW,317,4.0,6.0,76,0.00,,,0.02,Wunderground v.1.15,2013-03-25 23:03:00,
2013-03-25 18:07:00,30.9,23.9,30.25,NW,322,4.0,6.0,75,0.00,,,0.02,Wunderground v.1.15,2013-03-25 23:07:00,
2013-03-25 18:08:00,30.9,23.9,30.25,NW,309,6.0,6.0,75,0.00,,,0.02,Wunderground v.1.15,2013-03-25 23:08:00,
2013-03-25 18:09:00,30.9,23.6,30.25,NW,317,7.0,7.0,74,0.00,,,0.02,Wunderground v.1.15,2013-03-25 23:09:00,
2013-03-25 18:13:00,30.8,23.8,30.25,NNW,342,5.0,6.0,75,0.00,,,0.02,Wunderground v.1.15,2013-03-25 23:13:00,
2013-03-25 18:14:00,30.7,24.0,30.25,NW,306,4.0,7.0,76,0.00,,,0.02,Wunderground v.1.15,2013-03-25 23:14:00,
2013-03-25 18:15:00,30.6,23.6,30.26,NNW,330,4.0,7.0,75,0.00,,,0.02,Wunderground v.1.15,2013-03-25 23:15:00,
2013-03-25 18:18:00,30.5,23.5,30.26,NW,315,2.0,7.0,75,0.00,,,0.02,Wunderground v.1.15,2013-03-25 23:18:00,
2013-03-25 18:19:00,30.4,23.7,30.26,WNW,289,2.0,7.0,76,0.00,,,0.02,Wunderground v.1.15,2013-03-25 23:19:00,
2013-03-25 18:20:00,30.3,23.6,30.26,WNW,290,2.0,5.0,76,0.00,,,0.02,Wunderground v.1.15,2013-03-25 23:20:00,
2013-03-25 18:23:00,30.3,24.0,30.26,NW,321,3.0,5.0,77,0.00,,,0.02,Wunderground v.1.15,2013-03-25 23:23:00,
2013-03-25 18:24:00,30.3,24.0,30.26,NNW,333,4.0,5.0,77,0.00,,,0.02,Wunderground v.1.15,2013-03-25 23:24:00,
2013-03-25 18:25:00,30.3,23.6,30.26,NW,314,6.0,7.0,76,0.00,,,0.02,Wunderground v.1.15,2013-03-25 23:25:00,
2013-03-25 18:28:00,30.2,23.5,30.26,WNW,286,2.0,7.0,76,0.00,,,0.02,Wunderground v.1.15,2013-03-25 23:28:00,
2013-03-25 18:29:00,30.2,23.5,30.26,WNW,286,1.0,7.0,76,0.00,,,0.02,Wunderground v.1.15,2013-03-25 23:29:00,
2013-03-25 18:30:00,30.2,23.9,30.26,NW,304,3.0,3.0,77,0.00,,,0.02,Wunderground v.1.15,2013-03-25 23:30:00,
2013-03-25 18:34:00,30.1,24.1,30.26,WNW,290,2.0,4.0,78,0.00,,,0.02,Wunderground v.1.15,2013-03-25 23:34:00,
2013-03-25 18:35:00,30.1,23.8,30.27,NW,305,2.0,7.0,77,0.00,,,0.02,Wunderground v.1.15,2013-03-25 23:35:00,
2013-03-25 18:36:00,30.1,23.8,30.27,NW,309,1.0,7.0,77,0.00,,,0.02,Wunderground v.1.15,2013-03-25 23:36:00,
2013-03-25 18:39:00,30.1,23.4,30.27,WNW,302,4.0,7.0,76,0.00,,,0.02,Wunderground v.1.15,2013-03-25 23:39:00,
2013-03-25 18:40:00,30.0,23.4,30.27,NW,306,0.0,3.0,76,0.00,,,0.02,Wunderground v.1.15,2013-03-25 23:40:00,
2013-03-25 18:41:00,30.0,23.4,30.27,West,269,2.0,3.0,76,0.00,,,0.02,Wunderground v.1.15,2013-03-25 23:41:00,
2013-03-25 18:44:00,29.9,23.6,30.27,West,270,1.0,3.0,77,0.00,,,0.02,Wunderground v.1.15,2013-03-25 23:44:00,
2013-03-25 18:45:00,29.9,23.6,30.27,WNW,289,4.0,4.0,77,0.00,,,0.02,Wunderground v.1.15,2013-03-25 23:45:00,
2013-03-25 18:47:00,29.9,23.6,30.27,WNW,289,2.0,4.0,77,0.00,,,0.02,Wunderground v.1.15,2013-03-25 23:47:00,
2013-03-25 18:50:00,29.8,23.5,30.27,WNW,292,3.0,3.0,77,0.00,,,0.02,Wunderground v.1.15,2013-03-25 23:50:00,
2013-03-25 18:52:00,29.8,23.5,30.27,NW,316,3.0,6.0,77,0.00,,,0.02,Wunderground v.1.15,2013-03-25 23:52:00,
2013-03-25 18:55:00,29.7,23.7,30.27,NW,316,4.0,6.0,78,0.00,,,0.02,Wunderground v.1.15,2013-03-25 23:55:00,
2013-03-25 18:57:00,29.6,23.6,30.27,NW,316,1.0,6.0,78,0.00,,,0.02,Wunderground v.1.15,2013-03-25 23:57:00,
2013-03-25 19:00:00,29.6,23.6,30.27,NW,313,3.0,3.0,78,0.00,,,0.02,Wunderground v.1.15,2013-03-26 00:00:00,
2013-03-25 19:02:00,29.5,23.8,30.28,NW,326,4.0,5.0,79,0.00,,,0.02,Wunderground v.1.15,2013-03-26 00:02:00,
2013-03-25 19:03:00,29.5,23.8,30.28,NW,314,3.0,5.0,79,0.00,,,0.02,Wunderground v.1.15,2013-03-26 00:03:00,
2013-03-25 19:05:00,29.4,23.7,30.28,WNW,282,3.0,5.0,79,0.00,,,0.02,Wunderground v.1.15,2013-03-26 00:05:00,
2013-03-25 19:06:00,29.4,23.4,30.28,West,279,1.0,5.0,78,0.00,,,0.02,Wunderground v.1.15,2013-03-26 00:06:00,
2013-03-25 19:08:00,29.3,23.3,30.28,WNW,293,3.0,5.0,78,0.00,,,0.02,Wunderground v.1.15,2013-03-26 00:08:00,
2013-03-25 19:10:00,29.4,23.4,30.28,NW,306,3.0,3.0,78,0.00,,,0.02,Wunderground v.1.15,2013-03-26 00:10:00,
2013-03-25 19:11:00,29.4,23.4,30.28,NW,306,3.0,3.0,78,0.00,,,0.02,Wunderground v.1.15,2013-03-26 00:11:00,
2013-03-25 19:13:00,29.4,23.4,30.28,NW,306,3.0,3.0,78,0.00,,,0.02,Wunderground v.1.15,2013-03-26 00:13:00,
2013-03-25 19:16:00,29.1,22.8,30.28,NW,323,8.0,8.0,77,0.00,,,0.02,Wunderground v.1.15,2013-03-26 00:16:00,
2013-03-25 19:17:00,29.0,22.7,30.28,NNW,331,5.0,8.0,77,0.00,,,0.02,Wunderground v.1.15,2013-03-26 00:17:00,
2013-03-25 19:18:00,29.0,22.7,30.28,NW,314,5.0,8.0,77,0.00,,,0.02,Wunderground v.1.15,2013-03-26 00:18:00,
2013-03-25 19:19:00,28.9,22.6,30.28,NNW,329,4.0,8.0,77,0.00,,,0.02,Wunderground v.1.15,2013-03-26 00:19:00,
2013-03-25 19:21:00,28.8,22.5,30.28,NW,308,4.0,6.0,77,0.00,,,0.02,Wunderground v.1.15,2013-03-26 00:21:00,
2013-03-25 19:22:00,28.8,22.5,30.28,NW,315,5.0,6.0,77,0.00,,,0.02,Wunderground v.1.15,2013-03-26 00:22:00,
2013-03-25 19:23:00,28.8,22.8,30.28,NNW,327,3.0,6.0,78,0.00,,,0.02,Wunderground v.1.15,2013-03-26 00:23:00,
2013-03-25 19:24:00,28.7,22.7,30.29,NW,306,1.0,6.0,78,0.00,,,0.02,Wunderground v.1.15,2013-03-26 00:24:00,
2013-03-25 19:26:00,28.7,22.7,30.29,NW,311,2.0,8.0,78,0.00,,,0.02,Wunderground v.1.15,2013-03-26 00:26:00,
2013-03-25 19:27:00,28.7,22.7,30.29,NW,311,2.0,8.0,78,0.00,,,0.02,Wunderground v.1.15,2013-03-26 00:27:00,
2013-03-25 19:28:00,28.6,22.9,30.29,NW,311,2.0,8.0,79,0.00,,,0.02,Wunderground v.1.15,2013-03-26 00:28:00,
2013-03-25 19:29:00,28.6,22.9,30.29,NW,311,1.0,8.0,79,0.00,,,0.02,Wunderground v.1.15,2013-03-26 00:29:00,
2013-03-25 19:31:00,28.5,22.8,30.29,NW,311,0.0,3.0,79,0.00,,,0.02,Wunderground v.1.15,2013-03-26 00:31:00,
2013-03-25 19:33:00,28.5,22.8,30.29,NW,319,3.0,5.0,79,0.00,,,0.02,Wunderground v.1.15,2013-03-26 00:33:00,
2013-03-25 19:34:00,28.4,22.4,30.29,NW,317,4.0,6.0,78,0.00,,,0.02,Wunderground v.1.15,2013-03-26 00:34:00,
2013-03-25 19:36:00,28.3,22.3,30.29,NNW,336,3.0,6.0,78,0.00,,,0.02,Wunderground v.1.15,2013-03-26 00:36:00,
2013-03-25 19:38:00,28.2,22.2,30.29,WNW,298,3.0,6.0,78,0.00,,,0.02,Wunderground v.1.15,2013-03-26 00:38:00,
2013-03-25 19:40:00,28.2,22.2,30.29,NW,306,2.0,2.0,78,0.00,,,0.02,Wunderground v.1.15,2013-03-26 00:40:00,
2013-03-25 19:43:00,28.1,22.1,30.29,NW,317,4.0,4.0,78,0.00,,,0.02,Wunderground v.1.15,2013-03-26 00:43:00,
2013-03-25 19:44:00,28.1,22.1,30.29,NW,323,4.0,5.0,78,0.00,,,0.02,Wunderground v.1.15,2013-03-26 00:44:00,
2013-03-25 19:45:00,28.0,22.0,30.29,NW,323,1.0,5.0,78,0.00,,,0.02,Wunderground v.1.15,2013-03-26 00:45:00,
2013-03-25 19:48:00,27.9,21.9,30.29,NNW,340,0.0,5.0,78,0.00,,,0.02,Wunderground v.1.15,2013-03-26 00:48:00,
2013-03-25 19:49:00,27.9,22.2,30.29,WNW,286,2.0,5.0,79,0.00,,,0.02,Wunderground v.1.15,2013-03-26 00:49:00,
2013-03-25 19:51:00,27.8,21.8,30.29,NW,315,3.0,6.0,78,0.00,,,0.02,Wunderground v.1.15,2013-03-26 00:51:00,
2013-03-25 19:53:00,27.7,22.0,30.29,NW,315,0.0,6.0,79,0.00,,,0.02,Wunderground v.1.15,2013-03-26 00:53:00,
2013-03-25 19:54:00,27.7,22.0,30.29,NW,313,2.0,6.0,79,0.00,,,0.02,Wunderground v.1.15,2013-03-26 00:54:00,
2013-03-25 19:56:00,27.6,21.9,30.29,WNW,300,1.0,9.0,79,0.00,,,0.02,Wunderground v.1.15,2013-03-26 00:56:00,
2013-03-25 19:58:00,27.5,21.8,30.30,NNW,327,1.0,9.0,79,0.00,,,0.02,Wunderground v.1.15,2013-03-26 00:58:00,
2013-03-25 19:59:00,27.5,21.8,30.30,NNW,327,0.0,9.0,79,0.00,,,0.02,Wunderground v.1.15,2013-03-26 00:59:00,
2013-03-25 20:02:00,27.4,22.0,30.30,NW,306,3.0,4.0,80,0.00,,,0.02,Wunderground v.1.15,2013-03-26 01:02:00,
2013-03-25 20:03:00,27.4,21.7,30.30,NW,306,1.0,4.0,79,0.00,,,0.02,Wunderground v.1.15,2013-03-26 01:03:00,
2013-03-25 20:04:00,27.3,21.3,30.30,NW,321,2.0,4.0,78,0.00,,,0.02,Wunderground v.1.15,2013-03-26 01:04:00,
2013-03-25 20:07:00,27.3,21.3,30.30,NW,321,2.0,4.0,78,0.00,,,0.02,Wunderground v.1.15,2013-03-26 01:07:00,
2013-03-25 20:08:00,27.3,21.3,30.30,NW,321,2.0,4.0,78,0.00,,,0.02,Wunderground v.1.15,2013-03-26 01:08:00,
2013-03-25 20:09:00,27.3,21.3,30.30,NW,321,2.0,2.0,78,0.00,,,0.02,Wunderground v.1.15,2013-03-26 01:09:00,
2013-03-25 20:10:00,27.3,21.3,30.30,NW,321,2.0,2.0,78,0.00,,,0.02,Wunderground v.1.15,2013-03-26 01:10:00,
2013-03-25 20:12:00,27.1,21.5,30.30,West,279,1.0,3.0,79,0.00,,,0.02,Wunderground v.1.15,2013-03-26 01:12:00,
2013-03-25 20:13:00,27.1,21.5,30.30,West,279,2.0,3.0,79,0.00,,,0.02,Wunderground v.1.15,2013-03-26 01:13:00,
2013-03-25 20:14:00,27.0,21.4,30.30,WNW,292,3.0,4.0,79,0.00,,,0.02,Wunderground v.1.15,2013-03-26 01:14:00,
2013-03-25 20:15:00,27.0,21.4,30.30,NW,315,2.0,4.0,79,0.00,,,0.02,Wunderground v.1.15,2013-03-26 01:15:00,
2013-03-25 20:17:00,27.0,21.4,30.30,West,271,3.0,6.0,79,0.00,,,0.02,Wunderground v.1.15,2013-03-26 01:17:00,
2013-03-25 20:19:00,26.9,21.6,30.30,WNW,289,2.0,3.0,80,0.00,,,0.02,Wunderground v.1.15,2013-03-26 01:19:00,
2013-03-25 20:20:00,26.9,21.6,30.30,WNW,291,2.0,3.0,80,0.00,,,0.02,Wunderground v.1.15,2013-03-26 01:20:00,
2013-03-25 20:22:00,26.9,21.6,30.30,WNW,298,0.0,3.0,80,0.00,,,0.02,Wunderground v.1.15,2013-03-26 01:22:00,
2013-03-25 20:24:00,26.8,21.8,30.30,NW,305,4.0,4.0,81,0.00,,,0.02,Wunderground v.1.15,2013-03-26 01:24:00,
2013-03-25 20:25:00,26.8,21.8,30.30,NW,305,2.0,4.0,81,0.00,,,0.02,Wunderground v.1.15,2013-03-26 01:25:00,
2013-03-25 20:27:00,26.7,21.4,30.30,WNW,300,3.0,4.0,80,0.00,,,0.02,Wunderground v.1.15,2013-03-26 01:27:00,
2013-03-25 20:30:00,26.6,21.3,30.30,WNW,302,0.0,3.0,80,0.00,,,0.02,Wunderground v.1.15,2013-03-26 01:30:00,
2013-03-25 20:33:00,26.5,21.2,30.30,NW,313,2.0,4.0,80,0.00,,,0.02,Wunderground v.1.15,2013-03-26 01:33:00,
2013-03-25 20:35:00,26.5,21.2,30.30,NW,313,3.0,4.0,80,0.00,,,0.02,Wunderground v.1.15,2013-03-26 01:35:00,
2013-03-25 20:37:00,26.4,21.1,30.30,NW,313,2.0,4.0,80,0.00,,,0.02,Wunderground v.1.15,2013-03-26 01:37:00,
2013-03-25 20:38:00,26.4,21.1,30.31,WNW,302,4.0,4.0,80,0.00,,,0.02,Wunderground v.1.15,2013-03-26 01:38:00,
2013-03-25 20:40:00,26.3,21.0,30.31,WNW,286,2.0,3.0,80,0.00,,,0.02,Wunderground v.1.15,2013-03-26 01:40:00,
2013-03-25 20:42:00,26.2,20.9,30.31,NW,309,4.0,4.0,80,0.00,,,0.02,Wunderground v.1.15,2013-03-26 01:42:00,
2013-03-25 20:43:00,26.2,20.9,30.31,WNW,290,4.0,5.0,80,0.00,,,0.02,Wunderground v.1.15,2013-03-26 01:43:00,
2013-03-25 20:45:00,26.1,20.8,30.31,NW,314,2.0,5.0,80,0.00,,,0.02,Wunderground v.1.15,2013-03-26 01:45:00,
2013-03-25 20:47:00,26.0,20.7,30.31,NW,309,3.0,5.0,80,0.00,,,0.02,Wunderground v.1.15,2013-03-26 01:47:00,
2013-03-25 20:49:00,26.0,21.0,30.31,WNW,285,5.0,5.0,81,0.00,,,0.02,Wunderground v.1.15,2013-03-26 01:49:00,
2013-03-25 20:50:00,25.9,20.9,30.31,West,278,2.0,5.0,81,0.00,,,0.02,Wunderground v.1.15,2013-03-26 01:50:00,
2013-03-25 20:52:00,25.8,20.8,30.31,WNW,297,3.0,5.0,81,0.00,,,0.02,Wunderground v.1.15,2013-03-26 01:52:00,
2013-03-25 20:53:00,25.8,20.8,30.31,WNW,298,4.0,5.0,81,0.00,,,0.02,Wunderground v.1.15,2013-03-26 01:53:00,
2013-03-25 20:54:00,25.8,20.8,30.31,WNW,298,1.0,5.0,81,0.00,,,0.02,Wunderground v.1.15,2013-03-26 01:54:00,
2013-03-25 20:56:00,25.7,20.7,30.31,WNW,300,2.0,5.0,81,0.00,,,0.02,Wunderground v.1.15,2013-03-26 01:56:00,
2013-03-25 20:58:00,25.7,20.7,30.31,WNW,293,2.0,5.0,81,0.00,,,0.02,Wunderground v.1.15,2013-03-26 01:58:00,
2013-03-25 20:59:00,25.7,20.7,30.31,WNW,300,1.0,5.0,81,0.00,,,0.02,Wunderground v.1.15,2013-03-26 01:59:00,
2013-03-25 21:02:00,25.6,20.6,30.31,NW,304,3.0,4.0,81,0.00,,,0.02,Wunderground v.1.15,2013-03-26 02:02:00,
2013-03-25 21:03:00,25.6,20.6,30.31,NW,304,2.0,4.0,81,0.00,,,0.02,Wunderground v.1.15,2013-03-26 02:03:00,
2013-03-25 21:04:00,25.5,20.5,30.31,NW,304,2.0,4.0,81,0.00,,,0.02,Wunderground v.1.15,2013-03-26 02:04:00,
2013-03-25 21:08:00,25.4,20.7,30.31,WNW,301,3.0,4.0,82,0.00,,,0.02,Wunderground v.1.15,2013-03-26 02:08:00,
2013-03-25 21:09:00,25.4,20.7,30.32,NW,323,3.0,4.0,82,0.00,,,0.02,Wunderground v.1.15,2013-03-26 02:09:00,
2013-03-25 21:13:00,25.3,20.3,30.32,NW,307,3.0,5.0,81,0.00,,,0.02,Wunderground v.1.15,2013-03-26 02:13:00,
2013-03-25 21:14:00,25.2,20.2,30.32,NW,309,1.0,5.0,81,0.00,,,0.02,Wunderground v.1.15,2013-03-26 02:14:00,
2013-03-25 21:15:00,25.2,20.2,30.32,NW,317,2.0,5.0,81,0.00,,,0.02,Wunderground v.1.15,2013-03-26 02:15:00,
2013-03-25 21:18:00,25.1,20.1,30.32,WNW,294,2.0,9.0,81,0.00,,,0.02,Wunderground v.1.15,2013-03-26 02:18:00,
2013-03-25 21:20:00,25.0,20.0,30.32,WNW,295,3.0,4.0,81,0.00,,,0.02,Wunderground v.1.15,2013-03-26 02:20:00,
2013-03-25 21:21:00,25.0,20.0,30.32,NW,306,1.0,4.0,81,0.00,,,0.02,Wunderground v.1.15,2013-03-26 02:21:00,
2013-03-25 21:23:00,24.9,19.9,30.32,NW,308,3.0,4.0,81,0.00,,,0.02,Wunderground v.1.15,2013-03-26 02:23:00,
2013-03-25 21:25:00,24.8,19.8,30.32,NNW,333,3.0,6.0,81,0.00,,,0.02,Wunderground v.1.15,2013-03-26 02:25:00,
2013-03-25 21:26:00,24.8,19.8,30.32,WNW,286,2.0,6.0,81,0.00,,,0.02,Wunderground v.1.15,2013-03-26 02:26:00,
2013-03-25 21:28:00,24.7,19.7,30.32,NW,306,2.0,6.0,81,0.00,,,0.02,Wunderground v.1.15,2013-03-26 02:28:00,
2013-03-25 21:31:00,24.7,19.7,30.32,NW,304,2.0,3.0,81,0.00,,,0.02,Wunderground v.1.15,2013-03-26 02:31:00,
2013-03-25 21:32:00,24.7,19.7,30.32,NW,304,3.0,3.0,81,0.00,,,0.02,Wunderground v.1.15,2013-03-26 02:32:00,
2013-03-25 21:33:00,24.6,19.6,30.32,NW,304,2.0,3.0,81,0.00,,,0.02,Wunderground v.1.15,2013-03-26 02:33:00,
2013-03-25 21:34:00,24.6,19.6,30.32,NW,304,2.0,3.0,81,0.00,,,0.02,Wunderground v.1.15,2013-03-26 02:34:00,
2013-03-25 21:37:00,24.5,19.5,30.32,WNW,302,2.0,4.0,81,0.00,,,0.02,Wunderground v.1.15,2013-03-26 02:37:00,
2013-03-25 21:38:00,24.5,19.5,30.33,WSW,252,1.0,4.0,81,0.00,,,0.02,Wunderground v.1.15,2013-03-26 02:38:00,
2013-03-25 21:39:00,24.5,19.5,30.33,WNW,293,3.0,6.0,81,0.00,,,0.02,Wunderground v.1.15,2013-03-26 02:39:00,
2013-03-25 21:42:00,24.5,19.5,30.33,NW,309,3.0,4.0,81,0.00,,,0.02,Wunderground v.1.15,2013-03-26 02:42:00,
2013-03-25 21:43:00,24.4,19.7,30.33,WNW,286,1.0,4.0,82,0.00,,,0.02,Wunderground v.1.15,2013-03-26 02:43:00,
2013-03-25 21:44:00,24.4,19.7,30.33,NW,312,1.0,4.0,82,0.00,,,0.02,Wunderground v.1.15,2013-03-26 02:44:00,
2013-03-25 21:45:00,24.4,19.7,30.33,NW,311,1.0,4.0,82,0.00,,,0.02,Wunderground v.1.15,2013-03-26 02:45:00,
2013-03-25 21:48:00,24.3,19.6,30.33,WNW,286,2.0,5.0,82,0.00,,,0.02,Wunderground v.1.15,2013-03-26 02:48:00,
2013-03-25 21:49:00,24.3,19.6,30.33,WNW,285,3.0,7.0,82,0.00,,,0.02,Wunderground v.1.15,2013-03-26 02:49:00,
2013-03-25 21:50:00,24.2,19.2,30.33,NW,311,3.0,4.0,81,0.00,,,0.02,Wunderground v.1.15,2013-03-26 02:50:00,
2013-03-25 21:53:00,24.2,19.2,30.33,WNW,294,3.0,5.0,81,0.00,,,0.02,Wunderground v.1.15,2013-03-26 02:53:00,
2013-03-25 21:54:00,24.2,19.2,30.33,WNW,294,2.0,5.0,81,0.00,,,0.02,Wunderground v.1.15,2013-03-26 02:54:00,
2013-03-25 21:55:00,24.1,19.1,30.33,WNW,294,1.0,5.0,81,0.00,,,0.02,Wunderground v.1.15,2013-03-26 02:55:00,
2013-03-25 21:58:00,24.0,19.0,30.33,WNW,300,3.0,5.0,81,0.00,,,0.02,Wunderground v.1.15,2013-03-26 02:58:00,
2013-03-25 21:59:00,24.0,19.0,30.33,WNW,300,1.0,5.0,81,0.00,,,0.02,Wunderground v.1.15,2013-03-26 02:59:00,
2013-03-25 22:00:00,24.0,19.0,30.33,WNW,300,2.0,2.0,81,0.00,,,0.02,Wunderground v.1.15,2013-03-26 03:00:00,
2013-03-25 22:03:00,23.9,18.9,30.33,NW,325,0.0,3.0,81,0.00,,,0.02,Wunderground v.1.15,2013-03-26 03:03:00,
2013-03-25 22:04:00,23.9,18.9,30.33,NW,325,1.0,3.0,81,0.00,,,0.02,Wunderground v.1.15,2013-03-26 03:04:00,
2013-03-25 22:05:00,23.9,18.9,30.33,NW,325,2.0,3.0,81,0.00,,,0.02,Wunderground v.1.15,2013-03-26 03:05:00,
2013-03-25 22:09:00,23.8,18.8,30.33,NW,321,1.0,2.0,81,0.00,,,0.02,Wunderground v.1.15,2013-03-26 03:09:00,
2013-03-25 22:10:00,23.8,18.8,30.33,NW,321,2.0,3.0,81,0.00,,,0.02,Wunderground v.1.15,2013-03-26 03:10:00,
2013-03-25 22:11:00,23.7,18.7,30.33,NW,321,1.0,3.0,81,0.00,,,0.02,Wunderground v.1.15,2013-03-26 03:11:00,
2013-03-25 22:14:00,23.6,18.6,30.33,NNW,342,3.0,4.0,81,0.00,,,0.02,Wunderground v.1.15,2013-03-26 03:14:00,
2013-03-25 22:15:00,23.6,18.6,30.33,WNW,303,2.0,4.0,81,0.00,,,0.02,Wunderground v.1.15,2013-03-26 03:15:00,
2013-03-25 22:17:00,23.6,18.6,30.33,WNW,303,2.0,4.0,81,0.00,,,0.02,Wunderground v.1.15,2013-03-26 03:17:00,
2013-03-25 22:20:00,23.5,18.5,30.33,WNW,303,1.0,1.0,81,0.00,,,0.02,Wunderground v.1.15,2013-03-26 03:20:00,
2013-03-25 22:22:00,23.5,18.5,30.33,WNW,303,1.0,1.0,81,0.00,,,0.02,Wunderground v.1.15,2013-03-26 03:22:00,
2013-03-25 22:25:00,23.4,18.1,30.33,NW,315,1.0,2.0,80,0.00,,,0.02,Wunderground v.1.15,2013-03-26 03:25:00,
2013-03-25 22:27:00,23.4,18.4,30.33,West,279,3.0,5.0,81,0.00,,,0.02,Wunderground v.1.15,2013-03-26 03:27:00,
2013-03-25 22:28:00,23.4,18.1,30.33,WNW,294,2.0,5.0,80,0.00,,,0.02,Wunderground v.1.15,2013-03-26 03:28:00,
2013-03-25 22:31:00,23.4,18.1,30.33,NW,308,3.0,4.0,80,0.00,,,0.02,Wunderground v.1.15,2013-03-26 03:31:00,
2013-03-25 22:32:00,23.4,18.1,30.33,NW,315,0.0,4.0,80,0.00,,,0.02,Wunderground v.1.15,2013-03-26 03:32:00,
2013-03-25 22:33:00,23.3,18.0,30.33,NW,311,3.0,4.0,80,0.00,,,0.02,Wunderground v.1.15,2013-03-26 03:33:00,
2013-03-25 22:36:00,23.3,18.0,30.33,NW,306,1.0,4.0,80,0.00,,,0.02,Wunderground v.1.15,2013-03-26 03:36:00,
2013-03-25 22:37:00,23.3,18.0,30.33,NW,306,2.0,4.0,80,0.00,,,0.02,Wunderground v.1.15,2013-03-26 03:37:00,
2013-03-25 22:38:00,23.2,17.9,30.33,NW,306,1.0,4.0,80,0.00,,,0.02,Wunderground v.1.15,2013-03-26 03:38:00,
2013-03-25 22:41:00,23.1,17.8,30.33,WNW,300,2.0,5.0,80,0.00,,,0.02,Wunderground v.1.15,2013-03-26 03:41:00,
2013-03-25 22:42:00,23.1,17.8,30.33,WNW,300,3.0,5.0,80,0.00,,,0.02,Wunderground v.1.15,2013-03-26 03:42:00,
2013-03-25 22:43:00,23.1,17.8,30.33,WNW,296,3.0,5.0,80,0.00,,,0.02,Wunderground v.1.15,2013-03-26 03:43:00,
2013-03-25 22:46:00,23.1,17.8,30.33,WNW,296,2.0,5.0,80,0.00,,,0.02,Wunderground v.1.15,2013-03-26 03:46:00,
2013-03-25 22:47:00,23.1,17.8,30.33,WNW,299,4.0,5.0,80,0.00,,,0.02,Wunderground v.1.15,2013-03-26 03:47:00,
2013-03-25 22:48:00,23.1,17.8,30.33,NW,304,2.0,5.0,80,0.00,,,0.02,Wunderground v.1.15,2013-03-26 03:48:00,
2013-03-25 22:52:00,23.0,17.7,30.34,NW,304,0.0,3.0,80,0.00,,,0.02,Wunderground v.1.15,2013-03-26 03:52:00,
2013-03-25 22:53:00,23.0,18.0,30.34,NW,304,2.0,3.0,81,0.00,,,0.02,Wunderground v.1.15,2013-03-26 03:53:00,
2013-03-25 22:57:00,23.0,17.7,30.33,WNW,297,3.0,6.0,80,0.00,,,0.02,Wunderground v.1.15,2013-03-26 03:57:00,
2013-03-25 22:58:00,23.0,17.7,30.33,NNW,334,1.0,6.0,80,0.00,,,0.02,Wunderground v.1.15,2013-03-26 03:58:00,
2013-03-25 22:59:00,22.9,17.7,30.33,WNW,285,2.0,7.0,80,0.00,,,0.02,Wunderground v.1.15,2013-03-26 03:59:00,
2013-03-25 23:00:00,22.9,17.7,30.33,WNW,285,1.0,2.0,80,0.00,,,0.02,Wunderground v.1.15,2013-03-26 04:00:00,
2013-03-25 23:05:00,22.9,17.9,30.34,WNW,292,1.0,4.0,81,0.00,,,0.02,Wunderground v.1.15,2013-03-26 04:05:00,
2013-03-25 23:10:00,22.8,17.8,30.34,WNW,294,2.0,2.0,81,0.00,,,0.02,Wunderground v.1.15,2013-03-26 04:10:00,
2013-03-25 23:11:00,22.7,17.7,30.34,WNW,299,2.0,2.0,81,0.00,,,0.02,Wunderground v.1.15,2013-03-26 04:11:00,
2013-03-25 23:15:00,22.7,18.0,30.34,WNW,286,3.0,5.0,82,0.00,,,0.02,Wunderground v.1.15,2013-03-26 04:15:00,
2013-03-25 23:17:00,22.6,17.9,30.34,WNW,286,2.0,5.0,82,0.00,,,0.02,Wunderground v.1.15,2013-03-26 04:17:00,
2013-03-25 23:20:00,22.6,17.9,30.34,WNW,286,1.0,3.0,82,0.00,,,0.02,Wunderground v.1.15,2013-03-26 04:20:00,
2013-03-25 23:22:00,22.6,17.9,30.34,WNW,286,0.0,3.0,82,0.00,,,0.02,Wunderground v.1.15,2013-03-26 04:22:00,
2013-03-25 23:25:00,22.5,17.8,30.34,WNW,286,2.0,3.0,82,0.00,,,0.02,Wunderground v.1.15,2013-03-26 04:25:00,
2013-03-25 23:26:00,22.6,17.9,30.34,WNW,286,3.0,3.0,82,0.00,,,0.02,Wunderground v.1.15,2013-03-26 04:26:00,
2013-03-25 23:27:00,22.5,17.8,30.34,NW,313,2.0,4.0,82,0.00,,,0.02,Wunderground v.1.15,2013-03-26 04:27:00,
2013-03-25 23:30:00,22.5,17.8,30.34,NW,316,0.0,1.0,82,0.00,,,0.02,Wunderground v.1.15,2013-03-26 04:30:00,
2013-03-25 23:31:00,22.5,17.8,30.34,NW,316,0.0,1.0,82,0.00,,,0.02,Wunderground v.1.15,2013-03-26 04:31:00,
2013-03-25 23:32:00,22.4,17.7,30.34,NW,316,1.0,2.0,82,0.00,,,0.02,Wunderground v.1.15,2013-03-26 04:32:00,
2013-03-25 23:36:00,22.4,17.7,30.34,WNW,294,3.0,4.0,82,0.00,,,0.02,Wunderground v.1.15,2013-03-26 04:36:00,
2013-03-25 23:37:00,22.4,17.7,30.34,WNW,294,3.0,4.0,82,0.00,,,0.02,Wunderground v.1.15,2013-03-26 04:37:00,
2013-03-25 23:38:00,22.4,17.7,30.34,WNW,294,3.0,4.0,82,0.00,,,0.02,Wunderground v.1.15,2013-03-26 04:38:00,
2013-03-25 23:41:00,22.3,17.6,30.34,WNW,297,1.0,2.0,82,0.00,,,0.02,Wunderground v.1.15,2013-03-26 04:41:00,
2013-03-25 23:42:00,22.3,17.6,30.34,WNW,297,2.0,4.0,82,0.00,,,0.02,Wunderground v.1.15,2013-03-26 04:42:00,
2013-03-25 23:43:00,22.3,17.6,30.34,WNW,297,1.0,4.0,82,0.00,,,0.02,Wunderground v.1.15,2013-03-26 04:43:00,
2013-03-25 23:46:00,22.2,17.5,30.34,WNW,294,2.0,4.0,82,0.00,,,0.02,Wunderground v.1.15,2013-03-26 04:46:00,
2013-03-25 23:47:00,22.2,17.5,30.34,WNW,302,2.0,5.0,82,0.00,,,0.02,Wunderground v.1.15,2013-03-26 04:47:00,
2013-03-25 23:48:00,22.2,17.5,30.34,WNW,302,2.0,5.0,82,0.00,,,0.02,Wunderground v.1.15,2013-03-26 04:48:00,
2013-03-25 23:52:00,22.2,17.8,30.34,West,277,2.0,2.0,83,0.00,,,0.02,Wunderground v.1.15,2013-03-26 04:52:00,
2013-03-25 23:53:00,22.1,17.7,30.34,West,277,2.0,3.0,83,0.00,,,0.02,Wunderground v.1.15,2013-03-26 04:53:00,
2013-03-25 23:57:00,22.1,17.7,30.34,West,277,0.0,5.0,83,0.00,,,0.02,Wunderground v.1.15,2013-03-26 04:57:00,
2013-03-25 23:58:00,22.1,17.7,30.34,West,277,1.0,5.0,83,0.00,,,0.02,Wunderground v.1.15,2013-03-26 04:58:00,
2013-03-25 23:59:00,22.1,17.7,30.34,West,277,1.0,5.0,83,0.00,,,0.02,Wunderground v.1.15,2013-03-26 04:59:00,